Provisional Data: Susquehanna River near Binghamton, NY


Please select a monitoring station.
Please select start date.
Please select start date.

Toggle Unit: C/F Toggle Unit: C/F
Sample Time Temperature (C) Temperature (F) Specific Conductivity (mS/cm) pH   Turbidity (NTU+) DO (mg/L)
10/20/2020 12:00:00 AM 7.4296 1.9393
10/20/2020 12:15:00 AM 7.4285 1.9593
10/20/2020 12:30:00 AM 7.4261 1.8736
10/20/2020 12:45:00 AM 7.4258 1.9253
10/20/2020 1:00:00 AM 7.4267 1.899
10/20/2020 1:15:00 AM 7.4259 1.9339
10/20/2020 1:30:00 AM 7.426 1.8464
10/20/2020 1:45:00 AM 7.4276 1.8589
10/20/2020 2:00:00 AM 7.4299 2.0428
10/20/2020 2:15:00 AM 7.4314 1.8422
10/20/2020 2:30:00 AM 7.4279 2.997
10/20/2020 2:45:00 AM 7.4312 2.0996
10/20/2020 3:00:00 AM 7.4323 1.7601
10/20/2020 3:15:00 AM 7.4348 1.7335
10/20/2020 3:30:00 AM 7.4369 1.7365
10/20/2020 3:45:00 AM 7.4339 1.7461
10/20/2020 4:00:00 AM 7.4295 1.7938
10/20/2020 4:15:00 AM 7.431 1.7315
10/20/2020 4:30:00 AM 7.4299 1.8112
10/20/2020 4:45:00 AM 7.4322 1.7374
10/20/2020 5:00:00 AM 7.4301 1.7427
10/20/2020 5:15:00 AM 7.4308 1.8532
10/20/2020 5:30:00 AM 7.433 1.8634
10/20/2020 5:45:00 AM 7.4326 1.8999
10/20/2020 6:00:00 AM 7.4158 1.8529
10/20/2020 6:15:00 AM 7.4322 1.7124
10/20/2020 6:30:00 AM 7.4404 1.6332
10/20/2020 6:45:00 AM 7.4446 1.5411
10/20/2020 7:00:00 AM 7.4443 1.5439
10/20/2020 7:15:00 AM 7.4425 1.5363
10/20/2020 7:30:00 AM 7.4409 1.5511
10/20/2020 7:45:00 AM 7.4474 1.6308
10/20/2020 8:00:00 AM 7.4534 1.6688
10/20/2020 8:15:00 AM 7.4573 1.7308
10/20/2020 8:30:00 AM 7.4618 1.6125
10/20/2020 8:45:00 AM 7.4662 1.6999
10/20/2020 9:00:00 AM 7.4583 1.665
10/20/2020 9:15:00 AM 7.4606 1.6245
10/20/2020 9:30:00 AM 7.4624 2.8667
10/20/2020 9:45:00 AM 7.4668 1.9202
10/20/2020 10:00:00 AM 7.4683 1.6322
10/20/2020 10:15:00 AM 7.4697 1.575
10/20/2020 10:30:00 AM 7.4699 1.5904
10/20/2020 10:45:00 AM 7.4688 1.53
10/20/2020 11:00:00 AM 7.4683 1.5399
10/20/2020 11:15:00 AM 7.4666 1.5574
10/20/2020 11:30:00 AM 7.4677 1.5524
10/20/2020 11:45:00 AM 7.4695 1.5481
10/20/2020 12:00:00 PM 7.4723 1.5465
10/20/2020 12:15:00 PM 7.475 1.548
10/20/2020 12:30:00 PM 7.4778 1.5476
10/20/2020 12:45:00 PM 7.481 1.5612
10/20/2020 1:00:00 PM 7.4833 1.5486
10/20/2020 1:15:00 PM 7.4873 1.5305
10/20/2020 1:30:00 PM 7.4881 2.4003
10/20/2020 1:45:00 PM 7.4892 1.7182
10/20/2020 2:00:00 PM 7.4875 1.4846
10/20/2020 2:15:00 PM 7.4907 1.4467
10/20/2020 2:30:00 PM 7.4929 1.4188
10/20/2020 2:45:00 PM 7.4944 1.4584
10/20/2020 3:00:00 PM 7.4961 1.4439
10/20/2020 3:15:00 PM 7.4973 1.5467
10/20/2020 3:30:00 PM 7.4906 1.5408
10/20/2020 3:45:00 PM 7.4784 1.5392
10/20/2020 4:00:00 PM 7.4708 1.5366
10/20/2020 4:15:00 PM 7.4685 1.539
10/20/2020 4:30:00 PM 7.4628 1.5311
10/20/2020 4:45:00 PM 7.4531 1.5325
10/20/2020 5:00:00 PM 7.444 1.5209
10/20/2020 5:15:00 PM 7.4434 1.5262
10/20/2020 5:30:00 PM 7.4469 1.5392
10/20/2020 5:45:00 PM 7.442 1.5445
10/20/2020 6:00:00 PM 7.4311 1.5826
10/20/2020 6:15:00 PM 7.4174 1.6402
10/20/2020 6:30:00 PM 7.4038 1.6392
10/20/2020 6:45:00 PM 7.3938 1.6493
10/20/2020 7:00:00 PM 7.3901 1.7198
10/20/2020 7:15:00 PM 7.3893 1.7454
10/20/2020 7:30:00 PM 7.3887 1.7228
10/20/2020 7:45:00 PM 7.3831 1.7956
10/20/2020 8:00:00 PM 7.3744 1.8374
10/20/2020 8:15:00 PM 7.3662 1.8612
10/20/2020 8:30:00 PM 7.361 1.8985
10/20/2020 8:45:00 PM 7.3598 1.9001
10/20/2020 9:00:00 PM 7.3532 2.0403
10/20/2020 9:15:00 PM 7.3515 2.0348
10/20/2020 9:30:00 PM 7.3476 2.0559
10/20/2020 9:45:00 PM 7.3411 2.0378
10/20/2020 10:00:00 PM 7.3354 2.2704
10/20/2020 10:15:00 PM 7.3415 2.7777
10/20/2020 10:30:00 PM 7.3313 2.4528
10/20/2020 10:45:00 PM 7.3283 2.3727
10/20/2020 11:00:00 PM 7.3288 2.3032
10/20/2020 11:15:00 PM 7.3271 2.2823
10/20/2020 11:30:00 PM 7.3244 2.2882
10/20/2020 11:45:00 PM 7.3248 2.3
10/21/2020 12:00:00 AM 7.32 2.2425
10/21/2020 12:15:00 AM 7.3182 2.2314
10/21/2020 12:30:00 AM 7.3177 2.239
10/21/2020 12:45:00 AM 7.3172 2.2441
10/21/2020 1:00:00 AM 7.3162 2.2396
10/21/2020 1:15:00 AM 7.3147 2.2453
10/21/2020 1:30:00 AM 7.3142 2.2379
10/21/2020 1:45:00 AM 7.3146 2.1986
10/21/2020 2:00:00 AM 7.3126 2.1562
10/21/2020 2:15:00 AM 7.3122 2.9735
10/21/2020 2:30:00 AM 7.315 2.6704
10/21/2020 2:45:00 AM 7.3136 2.3
10/21/2020 3:00:00 AM 7.3139 2.1626
10/21/2020 3:15:00 AM 7.3138 2.3436
10/21/2020 3:30:00 AM 7.3119 2.2838
10/21/2020 3:45:00 AM 7.3123 2.2117
10/21/2020 4:00:00 AM 7.3125 2.1856
10/21/2020 4:15:00 AM 7.3136 2.1514
10/21/2020 4:30:00 AM 7.3143 2.1534
10/21/2020 4:45:00 AM 7.318 2.1556
10/21/2020 5:00:00 AM 7.3226 2.1459
10/21/2020 5:15:00 AM 7.3285 2.2501
10/21/2020 5:30:00 AM 7.3321 2.3158
10/21/2020 5:45:00 AM 7.329 2.2999
10/21/2020 6:00:00 AM 7.3327 2.1055
10/21/2020 6:15:00 AM 7.3404 2.0384
10/21/2020 6:30:00 AM 7.3432 2.0648
10/21/2020 6:45:00 AM 7.3473 2.0382
10/21/2020 7:00:00 AM 7.3504 2.0499
10/21/2020 7:15:00 AM 7.3532 2.1359
10/21/2020 7:30:00 AM 7.3572 2.1526
10/21/2020 7:45:00 AM 7.359 2.131
10/21/2020 8:00:00 AM 7.362 2.1583
10/21/2020 8:15:00 AM 7.3609 2.1057
10/21/2020 8:30:00 AM 7.3644 2.0478
10/21/2020 8:45:00 AM 7.3696 2.1
10/21/2020 9:00:00 AM 7.3747 2.027
10/21/2020 9:15:00 AM 7.385 2.0804
10/21/2020 9:30:00 AM 7.4 2.0438
10/21/2020 9:45:00 AM 7.3989 3.1679
10/21/2020 10:00:00 AM 7.4017 2.3583
10/21/2020 10:15:00 AM 7.4056 2.0041
10/21/2020 10:30:00 AM 7.4065 1.9436
10/21/2020 10:45:00 AM 7.4091 1.9608
10/21/2020 11:00:00 AM 7.413 1.8781
10/21/2020 11:15:00 AM 7.416 1.9515
10/21/2020 11:30:00 AM 7.4186 1.9497
10/21/2020 11:45:00 AM 7.4228 2
10/21/2020 12:00:00 PM 7.4335 2.0186
10/21/2020 12:15:00 PM 7.4352 2.0488
10/21/2020 12:30:00 PM 7.4366 2.0416
10/21/2020 12:45:00 PM 7.4528 2.0497
10/21/2020 1:00:00 PM 7.466 2.0855
10/21/2020 1:15:00 PM 7.4736 2.1475
10/21/2020 1:30:00 PM 7.4843 2.1812
10/21/2020 1:45:00 PM 7.479 3.5094
10/21/2020 2:00:00 PM 7.4869 2.5918
10/21/2020 2:15:00 PM 7.4942 2.4382
10/21/2020 2:30:00 PM 7.4969 2.4468
10/21/2020 2:45:00 PM 7.4992 2.4319
10/21/2020 3:00:00 PM 7.4973 2.4489
10/21/2020 3:15:00 PM 7.5009 2.4468
10/21/2020 3:30:00 PM 7.5062 2.3574
10/21/2020 3:45:00 PM 7.5071 2.3478
10/21/2020 4:00:00 PM 7.5096 2.3413
10/21/2020 4:15:00 PM 7.5123 2.2685
10/21/2020 4:30:00 PM 7.5108 2.2573
10/21/2020 4:45:00 PM 7.512 2.2606
10/21/2020 5:00:00 PM 7.507 2.333
10/21/2020 5:15:00 PM 7.4964 2.4168
10/21/2020 5:30:00 PM 7.4888 2.4502
10/21/2020 5:45:00 PM 7.4858 2.4999
10/21/2020 6:00:00 PM 7.4827 2.5472
10/21/2020 6:15:00 PM 7.4796 2.6418
10/21/2020 6:30:00 PM 7.4679 2.6232
10/21/2020 6:45:00 PM 7.4534 2.7132
10/21/2020 7:00:00 PM 7.4477 2.7581
10/21/2020 7:15:00 PM 7.4458 2.75
10/21/2020 7:30:00 PM 7.4395 2.8464
10/21/2020 7:45:00 PM 7.4342 2.9463
10/21/2020 8:00:00 PM 7.4237 2.9842
10/21/2020 8:15:00 PM 7.416 3.1795
10/21/2020 8:30:00 PM 7.4127 3.278
10/21/2020 8:45:00 PM 7.4046 3.2001
10/21/2020 9:00:00 PM 7.3993 3.3073
10/21/2020 9:15:00 PM 7.3912 3.317
10/21/2020 9:30:00 PM 7.3858 3.2512
10/21/2020 9:45:00 PM 7.3809 3.494
10/21/2020 10:00:00 PM 7.3811 5.8236
10/21/2020 10:15:00 PM 7.3697 2.6642
10/21/2020 10:30:00 PM 7.3666 2.8852
10/21/2020 10:45:00 PM 7.3647 3.1808
10/21/2020 11:00:00 PM 7.3672 3.0267
10/21/2020 11:15:00 PM 7.3601 3.2483
10/21/2020 11:30:00 PM 7.3613 3.2504
10/21/2020 11:45:00 PM 7.3556 3.0998
10/22/2020 12:00:00 AM 7.3459 28.0505
10/22/2020 12:15:00 AM 7.3229 11.6424
10/22/2020 12:30:00 AM 7.3371 6.6443
10/22/2020 12:45:00 AM 7.3416 41.9862
10/22/2020 1:00:00 AM 7.2529 425.8631
10/22/2020 1:15:00 AM 7.2735 69.0439
10/22/2020 1:30:00 AM 7.3191 4.659
10/22/2020 1:45:00 AM 7.3293 3.7129
10/22/2020 2:00:00 AM 7.3306 3.9898
10/22/2020 2:15:00 AM 7.3485 5.8067
10/22/2020 2:30:00 AM 7.3551 4.8881
10/22/2020 2:45:00 AM 7.3542 4.3001
10/22/2020 3:00:00 AM 7.3612 4.1928
10/22/2020 3:15:00 AM 7.3649 3.3553
10/22/2020 3:30:00 AM 7.3698 3.1551
10/22/2020 3:45:00 AM 7.3779 2.4893
10/22/2020 4:00:00 AM 7.382 2.4113
10/22/2020 4:15:00 AM 7.3588 3.1288
10/22/2020 4:30:00 AM 7.3895 2.2936
10/22/2020 4:45:00 AM 7.3997 2.1811
10/22/2020 5:00:00 AM 7.4061 2.2
10/22/2020 5:15:00 AM 7.4078 21.4693
10/22/2020 5:30:00 AM 7.4249 2.4874
10/22/2020 5:45:00 AM 7.4284 2.3996
10/22/2020 6:00:00 AM 7.4329 2.4694
10/22/2020 6:15:00 AM 7.4432 2.5406
10/22/2020 6:30:00 AM 7.4537 2.511
10/22/2020 6:45:00 AM 7.4597 2.4429
10/22/2020 7:00:00 AM 7.4624 2.4925
10/22/2020 7:15:00 AM 7.4697 2.4559
10/22/2020 7:30:00 AM 7.4751 2.4357
10/22/2020 7:45:00 AM 7.4834 2.3524
10/22/2020 8:00:00 AM 7.4897 2.3195
10/22/2020 8:15:00 AM 7.4969 2.2646
10/22/2020 8:30:00 AM 7.5145 2.1646
10/22/2020 8:45:00 AM 7.5278 2.2
10/22/2020 9:00:00 AM 7.5421 2.1207
10/22/2020 9:15:00 AM 7.5499 2.0392
10/22/2020 9:30:00 AM 7.5524 2.1292
10/22/2020 9:45:00 AM 7.4659 9.5297
10/22/2020 10:00:00 AM 7.5198 5.4641
10/22/2020 10:15:00 AM 7.5536 3.7782
10/22/2020 10:30:00 AM 7.5662 2.5249
10/22/2020 10:45:00 AM 7.5745 2.2003
10/22/2020 11:00:00 AM 7.5801 2.1425
10/22/2020 11:15:00 AM 7.588 2.1317
10/22/2020 11:30:00 AM 7.5919 2.0903
10/22/2020 11:45:00 AM 7.5964 2.0998
10/22/2020 12:00:00 PM 7.6011 2.4502
10/22/2020 12:15:00 PM 7.6174 2.0714
10/22/2020 12:30:00 PM 7.6257 2.0062
10/22/2020 12:45:00 PM 7.6298 1.9783
10/22/2020 1:00:00 PM 7.6385 2.0425
10/22/2020 1:15:00 PM 7.645 1.9968
10/22/2020 1:30:00 PM 7.6505 2.1375
10/22/2020 1:45:00 PM 7.6625 2.0769
10/22/2020 2:00:00 PM 7.6713 2.0578
10/22/2020 2:15:00 PM 7.6773 2.0516
10/22/2020 2:30:00 PM 7.6816 2.0437
10/22/2020 2:45:00 PM 7.6755 2.0211
10/22/2020 3:00:00 PM 7.6594 1.9896
10/22/2020 3:15:00 PM 7.6466 1.9408
10/22/2020 3:30:00 PM 7.6461 1.9262
10/22/2020 3:45:00 PM 7.6561 2.0179
10/22/2020 4:00:00 PM 7.6734 2.1004
10/22/2020 4:15:00 PM 7.6709 2.3305
10/22/2020 4:30:00 PM 7.6589 2.308
10/22/2020 4:45:00 PM 7.6572 2.2277
10/22/2020 5:00:00 PM 7.6579 2.18
10/22/2020 5:15:00 PM 7.6524 2.1972
10/22/2020 5:30:00 PM 7.6391 2.1829
10/22/2020 5:45:00 PM 7.6286 2.1998
10/22/2020 6:00:00 PM 7.5865 2.2398
10/22/2020 6:15:00 PM 7.5509 2.2621
10/22/2020 6:30:00 PM 7.5138 2.3512
10/22/2020 6:45:00 PM 7.4921 2.4728
10/22/2020 7:00:00 PM 7.4756 2.5212
10/22/2020 7:15:00 PM 7.4672 2.5568
10/22/2020 7:30:00 PM 7.4584 2.5782
10/22/2020 7:45:00 PM 7.4539 2.5922
10/22/2020 8:00:00 PM 7.4532 2.632
10/22/2020 8:15:00 PM 7.4512 2.5868
10/22/2020 8:30:00 PM 7.4395 2.5416
10/22/2020 8:45:00 PM 7.427 2.5999
10/22/2020 9:00:00 PM 7.4003 2.5512
10/22/2020 9:15:00 PM 7.3812 2.5101
10/22/2020 9:30:00 PM 7.3691 2.5367
10/22/2020 9:45:00 PM 7.3595 2.5901
10/22/2020 10:00:00 PM 7.3499 3.6481
10/22/2020 10:15:00 PM 7.3318 6.7164
10/22/2020 10:30:00 PM 7.3261 5.3451
10/22/2020 10:45:00 PM 7.3196 6.3587
10/22/2020 11:00:00 PM 7.3184 4.803
10/22/2020 11:15:00 PM 7.3141 4.2974
10/22/2020 11:30:00 PM 7.3151 4.3282
10/22/2020 11:45:00 PM 7.3261 4.6065
10/23/2020 12:00:00 AM 7.3264 4.71
10/23/2020 12:15:00 AM 7.3179 5.1398
10/23/2020 12:30:00 AM 7.3136 5.3175
10/23/2020 12:45:00 AM 7.3104 5.2842
10/23/2020 1:00:00 AM 7.3078 5.6201
10/23/2020 1:15:00 AM 7.3018 5.7783
10/23/2020 1:30:00 AM 7.3024 5.3257
10/23/2020 1:45:00 AM 7.2954 7.4058
10/23/2020 2:00:00 AM 7.3177 6.8537
10/23/2020 2:15:00 AM 7.3305 7.0927
10/23/2020 2:30:00 AM 7.34 7.8323
10/23/2020 2:45:00 AM 7.336 7.9
10/23/2020 3:00:00 AM 7.3386 8.3431
10/23/2020 3:15:00 AM 7.3376 8.491
10/23/2020 3:30:00 AM 7.3415 8.7796
10/23/2020 3:45:00 AM 7.3458 8.9887
10/23/2020 4:00:00 AM 7.3501 9.5494
10/23/2020 4:15:00 AM 7.3579 10.012
10/23/2020 4:30:00 AM 7.3608 9.8181
10/23/2020 4:45:00 AM 7.368 9.984
10/23/2020 5:00:00 AM 7.3741 10.2494
10/23/2020 5:15:00 AM 7.3757 10.3501
10/23/2020 5:30:00 AM 7.3867 10.3744
10/23/2020 5:45:00 AM 7.3892 10.3001
10/23/2020 6:00:00 AM 7.3957 10.3487
10/23/2020 6:15:00 AM 7.4094 10.4258
10/23/2020 6:30:00 AM 7.4168 10.4643
10/23/2020 6:45:00 AM 7.4225 10.5323
10/23/2020 7:00:00 AM 7.4316 10.5414
10/23/2020 7:15:00 AM 7.4379 10.6607
10/23/2020 7:30:00 AM 7.4417 10.7336
10/23/2020 7:45:00 AM 7.4491 10.8425
10/23/2020 8:00:00 AM 7.4591 10.8501
10/23/2020 8:15:00 AM 7.4683 10.8436
10/23/2020 8:30:00 AM 7.4759 10.8381
10/23/2020 8:45:00 AM 7.4802 10.8001
10/23/2020 9:00:00 AM 7.4914 10.9037
10/23/2020 9:15:00 AM 7.4986 10.9451
10/23/2020 9:30:00 AM 7.5029 10.9177
10/23/2020 9:45:00 AM 7.5069 10.9527
10/23/2020 10:00:00 AM 7.5172 10.9718
10/23/2020 10:15:00 AM 7.5268 11.0889
10/23/2020 10:30:00 AM 7.5376 11.0448
10/23/2020 10:45:00 AM 7.541 11.022
10/23/2020 11:00:00 AM 7.5467 11.0379
10/23/2020 11:15:00 AM 7.5493 11.1858
10/23/2020 11:30:00 AM 7.5537 11.2393
10/23/2020 11:45:00 AM 7.5572 11.1997
10/23/2020 12:00:00 PM 7.593 11.2006
10/23/2020 12:15:00 PM 7.6145 11.2465
10/23/2020 12:30:00 PM 7.6312 11.2248
10/23/2020 12:45:00 PM 7.6413 11.2253
10/23/2020 1:00:00 PM 7.6431 9.7044
10/23/2020 1:15:00 PM 7.656 1.8381
10/23/2020 1:30:00 PM 7.6616 1.8018
10/23/2020 1:45:00 PM 7.6752 1.8378
10/23/2020 2:00:00 PM 7.6738 1.8653
10/23/2020 2:15:00 PM 7.671 1.8861
10/23/2020 2:30:00 PM 7.667 1.9838
10/23/2020 2:45:00 PM 7.6634 1.9617
10/23/2020 3:00:00 PM 7.6605 2.0946
10/23/2020 3:15:00 PM 7.6652 2.159
10/23/2020 3:30:00 PM 7.6688 2.4279
10/23/2020 3:45:00 PM 7.662 2.2987
10/23/2020 4:00:00 PM 7.6637 2.2064
10/23/2020 4:15:00 PM 7.6641 2.1437
10/23/2020 4:30:00 PM 7.6604 2.1451
10/23/2020 4:45:00 PM 7.6575 2.0837
10/23/2020 5:00:00 PM 7.636 2.048
10/23/2020 5:15:00 PM 7.6005 2.0509
10/23/2020 5:30:00 PM 7.5655 2.2289
10/23/2020 5:45:00 PM 7.5572 2.2001
10/23/2020 6:00:00 PM 7.5131 2.4269
10/23/2020 6:15:00 PM 7.4915 2.2715
10/23/2020 6:30:00 PM 7.4708 2.2746
10/23/2020 6:45:00 PM 7.4488 2.2695
10/23/2020 7:00:00 PM 7.4308 2.3451
10/23/2020 7:15:00 PM 7.4197 2.6595
10/23/2020 7:30:00 PM 7.4118 2.7324
10/23/2020 7:45:00 PM 7.4055 2.5555
10/23/2020 8:00:00 PM 7.3972 2.4534
10/23/2020 8:15:00 PM 7.3899 2.4562
10/23/2020 8:30:00 PM 7.3834 2.3511
10/23/2020 8:45:00 PM 7.3836 2.3
10/23/2020 9:00:00 PM 7.3603 3.4749
10/23/2020 9:15:00 PM 7.3568 2.792
10/23/2020 9:30:00 PM 7.3516 2.4363
10/23/2020 9:45:00 PM 7.3454 2.3494
10/23/2020 10:00:00 PM 7.3378 2.3529
10/23/2020 10:15:00 PM 7.329 2.8548
10/23/2020 10:30:00 PM 7.3219 4.3802
10/23/2020 10:45:00 PM 7.318 5.9332
10/23/2020 11:00:00 PM 7.3214 4.7079
10/23/2020 11:15:00 PM 7.3253 3.9183
10/23/2020 11:30:00 PM 7.3212 2.6825
10/23/2020 11:45:00 PM 7.3066 2.5001
10/24/2020 12:00:00 AM 7.3148 2.4545
10/24/2020 12:15:00 AM 7.3158 2.5815
10/24/2020 12:30:00 AM 7.3173 2.709
10/24/2020 12:45:00 AM 7.3178 2.8717
10/24/2020 1:00:00 AM 7.3214 2.7112
10/24/2020 1:15:00 AM 7.3266 3.3161
10/24/2020 1:30:00 AM 7.3306 4.956
10/24/2020 1:45:00 AM 7.3285 3.8067
10/24/2020 2:00:00 AM 7.3316 3.0225
10/24/2020 2:15:00 AM 7.3353 2.4702
10/24/2020 2:30:00 AM 7.3393 2.374
10/24/2020 2:45:00 AM 7.3444 2.3999
10/24/2020 3:00:00 AM 7.35 2.419
10/24/2020 3:15:00 AM 7.3566 2.551
10/24/2020 3:30:00 AM 7.3612 3.5314
10/24/2020 3:45:00 AM 7.3687 2.8642
10/24/2020 4:00:00 AM 7.3789 2.6142
10/24/2020 4:15:00 AM 7.388 2.4659
10/24/2020 4:30:00 AM 7.3971 2.4418
10/24/2020 4:45:00 AM 7.4052 3.7001
10/24/2020 5:00:00 AM 7.4131 2.6184
10/24/2020 5:15:00 AM 7.4187 2.4757
10/24/2020 5:30:00 AM 7.4265 2.6953
10/24/2020 5:45:00 AM 7.4242 5.6991
10/24/2020 6:00:00 AM 7.4455 2.8061
10/24/2020 6:15:00 AM 7.442 2.7269
10/24/2020 6:30:00 AM 7.4656 2.4741
10/24/2020 6:45:00 AM 7.4781 2.51
10/24/2020 7:00:00 AM 7.4882 2.4668
10/24/2020 7:15:00 AM 7.4955 2.4553
10/24/2020 7:30:00 AM 7.5024 2.6607
10/24/2020 7:45:00 AM 7.5017 2.6484
10/24/2020 8:00:00 AM 7.5095 2.6516
10/24/2020 8:15:00 AM 7.5083 2.6323
10/24/2020 8:30:00 AM 7.4873 4.0828
10/24/2020 8:45:00 AM 7.4802 2.8004
10/24/2020 9:00:00 AM 7.5219 2.6694
10/24/2020 9:15:00 AM 7.5344 2.4451
10/24/2020 9:30:00 AM 7.5251 2.4364
10/24/2020 9:45:00 AM 7.5298 2.4667
10/24/2020 10:00:00 AM 7.5347 2.4608
10/24/2020 10:15:00 AM 7.5352 2.4486
10/24/2020 10:30:00 AM 7.5358 2.4387
10/24/2020 10:45:00 AM 7.5401 2.4494
10/24/2020 11:00:00 AM 7.5483 2.4272
10/24/2020 11:15:00 AM 7.5569 2.5184
10/24/2020 11:30:00 AM 7.5646 2.5274
10/24/2020 11:45:00 AM 7.5656 2.5001
10/24/2020 12:00:00 PM 7.5808 3.2909
10/24/2020 12:15:00 PM 7.5749 2.995
10/24/2020 12:30:00 PM 7.5729 2.641
10/24/2020 12:45:00 PM 7.576 2.6163
10/24/2020 1:00:00 PM 7.5922 2.5309
10/24/2020 1:15:00 PM 7.5907 2.5488
10/24/2020 1:30:00 PM 7.5881 3.6964
10/24/2020 1:45:00 PM 7.5777 4.223
10/24/2020 2:00:00 PM 7.5892 2.9532
10/24/2020 2:15:00 PM 7.6 2.6006
10/24/2020 2:30:00 PM 7.5818 2.6313
10/24/2020 2:45:00 PM 7.5814 2.6507
10/24/2020 3:00:00 PM 7.5723 2.6149
10/24/2020 3:15:00 PM 7.5521 2.5535
10/24/2020 3:30:00 PM 7.5403 2.5285
10/24/2020 3:45:00 PM 7.5241 2.5502
10/24/2020 4:00:00 PM 7.5155 2.5559
10/24/2020 4:15:00 PM 7.5316 2.5538
10/24/2020 4:30:00 PM 7.5532 2.5939
10/24/2020 4:45:00 PM 7.5599 2.6525
10/24/2020 5:00:00 PM 7.5447 2.6233
10/24/2020 5:15:00 PM 7.522 2.809
10/24/2020 5:30:00 PM 7.495 3.8132
10/24/2020 5:45:00 PM 7.4802 4.8005
10/24/2020 6:00:00 PM 7.4677 3.1555
10/24/2020 6:15:00 PM 7.4608 3.0646
10/24/2020 6:30:00 PM 7.4581 3.1806
10/24/2020 6:45:00 PM 7.4502 2.9759
10/24/2020 7:00:00 PM 7.4433 2.9316
10/24/2020 7:15:00 PM 7.4378 2.9528
10/24/2020 7:30:00 PM 7.4302 2.856
10/24/2020 7:45:00 PM 7.4247 2.8531
10/24/2020 8:00:00 PM 7.4194 2.9582
10/24/2020 8:15:00 PM 7.4163 3.0283
10/24/2020 8:30:00 PM 7.4161 2.9841
10/24/2020 8:45:00 PM 7.4186 2.9999
10/24/2020 9:00:00 PM 7.4076 2.9437
10/24/2020 9:15:00 PM 7.404 2.9715
10/24/2020 9:30:00 PM 7.3952 4.2156
10/24/2020 9:45:00 PM 7.3918 3.6424
10/24/2020 10:00:00 PM 7.392 3.7457
10/24/2020 10:15:00 PM 7.3957 3.4538
10/24/2020 10:30:00 PM 7.3927 3.4293
10/24/2020 10:45:00 PM 7.3903 3.8312
10/24/2020 11:00:00 PM 7.3888 3.3706
10/24/2020 11:15:00 PM 7.3879 3.3189
10/24/2020 11:30:00 PM 7.3831 3.3983
10/24/2020 11:45:00 PM 7.3836 3.4997
10/25/2020 12:00:00 AM 7.3748 3.3991
10/25/2020 12:15:00 AM 7.3688 3.4947
10/25/2020 12:30:00 AM 7.3908 3.7593
10/25/2020 12:45:00 AM 7.3966 3.8803
10/25/2020 1:00:00 AM 7.3904 3.6052
10/25/2020 1:15:00 AM 7.3944 3.4945
10/25/2020 1:30:00 AM 7.4031 3.454
10/25/2020 1:45:00 AM 7.4075 3.4317
10/25/2020 2:00:00 AM 7.4153 3.2681
10/25/2020 2:15:00 AM 7.4143 3.381
10/25/2020 2:30:00 AM 7.417 3.3101
10/25/2020 2:45:00 AM 7.4284 3.3005
10/25/2020 3:00:00 AM 7.4326 3.3798
10/25/2020 3:15:00 AM 7.4382 3.3421
10/25/2020 3:30:00 AM 7.4394 3.3726
10/25/2020 3:45:00 AM 7.4455 3.5252
10/25/2020 4:00:00 AM 7.451 3.4187
10/25/2020 4:15:00 AM 7.4486 3.4201
10/25/2020 4:30:00 AM 7.4502 3.7559
10/25/2020 4:45:00 AM 7.4581 3.6445
10/25/2020 5:00:00 AM 7.461 3.6121
10/25/2020 5:15:00 AM 7.4697 3.4269
10/25/2020 5:30:00 AM 7.4786 3.347
10/25/2020 5:45:00 AM 7.4746 3.4
10/25/2020 6:00:00 AM 7.482 3.2752
10/25/2020 6:15:00 AM 7.4995 3.2725
10/25/2020 6:30:00 AM 7.4999 3.3338
10/25/2020 6:45:00 AM 7.5104 3.354
10/25/2020 7:00:00 AM 7.5207 3.2815
10/25/2020 7:15:00 AM 7.5246 3.3304
10/25/2020 7:30:00 AM 7.5286 3.4255
10/25/2020 7:45:00 AM 7.5379 3.4528
10/25/2020 8:00:00 AM 7.5298 3.4131
10/25/2020 8:15:00 AM 7.5258 3.4179
10/25/2020 8:30:00 AM 7.5369 3.2763
10/25/2020 8:45:00 AM 7.539 3.3001
10/25/2020 9:00:00 AM 7.5372 3.253
10/25/2020 9:15:00 AM 7.5372 3.2395
10/25/2020 9:30:00 AM 7.5345 3.228
10/25/2020 9:45:00 AM 7.541 3.236
10/25/2020 10:00:00 AM 7.5479 3.2201
10/25/2020 10:15:00 AM 7.5535 3.1563
10/25/2020 10:30:00 AM 7.559 3.1597
10/25/2020 10:45:00 AM 7.5628 3.2526
10/25/2020 11:00:00 AM 7.5606 3.2288
10/25/2020 11:15:00 AM 7.5685 3.2567
10/25/2020 11:30:00 AM 7.5807 3.2703
10/25/2020 11:45:00 AM 7.595 3.2998
10/25/2020 12:00:00 PM 7.6041 3.3019
10/25/2020 12:15:00 PM 7.5991 3.2553
10/25/2020 12:30:00 PM 7.5846 3.247
10/25/2020 12:45:00 PM 7.5698 3.2857
10/25/2020 1:00:00 PM 7.5661 3.275
10/25/2020 1:15:00 PM 7.5669 3.2485
10/25/2020 1:30:00 PM 7.5647 3.2285
10/25/2020 1:45:00 PM 7.5619 3.2357
10/25/2020 2:00:00 PM 7.5577 3.2257
10/25/2020 2:15:00 PM 7.5544 3.2447
10/25/2020 2:30:00 PM 7.5524 3.2461
10/25/2020 2:45:00 PM 7.5564 3.2493
10/25/2020 3:00:00 PM 7.5571 3.3134
10/25/2020 3:15:00 PM 7.557 3.3584
10/25/2020 3:30:00 PM 7.5647 3.3759
10/25/2020 3:45:00 PM 7.5636 3.3393
10/25/2020 4:00:00 PM 7.5633 3.3431
10/25/2020 4:15:00 PM 7.5583 3.3402
10/25/2020 4:30:00 PM 7.5548 3.3315
10/25/2020 4:45:00 PM 7.5561 3.3551
10/25/2020 5:00:00 PM 7.5669 3.4427
10/25/2020 5:15:00 PM 7.5818 3.4396
10/25/2020 5:30:00 PM 7.5933 3.462
10/25/2020 5:45:00 PM 7.6006 3.4999
10/25/2020 6:00:00 PM 7.5961 3.5545
10/25/2020 6:15:00 PM 7.5768 3.5924
10/25/2020 6:30:00 PM 7.5602 3.6482
10/25/2020 6:45:00 PM 7.5477 3.754
10/25/2020 7:00:00 PM 7.5385 3.8634
10/25/2020 7:15:00 PM 7.5309 3.9591
10/25/2020 7:30:00 PM 7.5173 5.1394
10/25/2020 7:45:00 PM 7.5075 4.9255
10/25/2020 8:00:00 PM 7.5028 4.4947
10/25/2020 8:15:00 PM 7.4986 4.4541
10/25/2020 8:30:00 PM 7.4912 4.5455
10/25/2020 8:45:00 PM 7.4886 4.4999
10/25/2020 9:00:00 PM 7.4768 4.4422
10/25/2020 9:15:00 PM 7.4709 4.4833
10/25/2020 9:30:00 PM 7.4648 4.5532
10/25/2020 9:45:00 PM 7.4558 4.9006
10/25/2020 10:00:00 PM 7.4576 5.2477
10/25/2020 10:15:00 PM 7.4619 5.4222
10/25/2020 10:30:00 PM 7.4622 5.6638
10/25/2020 10:45:00 PM 7.4589 5.8946
10/25/2020 11:00:00 PM 7.4492 7.2694
10/25/2020 11:15:00 PM 7.4531 7.4106
10/25/2020 11:30:00 PM 7.4548 11.0915
10/25/2020 11:45:00 PM 7.4564 2.9001
10/26/2020 12:00:00 AM 7.4518 2.6535
10/26/2020 12:15:00 AM 7.4532 2.4092
10/26/2020 12:30:00 AM 7.4543 2.3309
10/26/2020 12:45:00 AM 7.4605 2.2691
10/26/2020 1:00:00 AM 7.4662 2.2684
10/26/2020 1:15:00 AM 7.4708 3.1284
10/26/2020 1:30:00 AM 7.4822 2.293
10/26/2020 1:45:00 AM 7.4828 2.248
10/26/2020 2:00:00 AM 7.4852 2.2384
10/26/2020 2:15:00 AM 7.4859 2.2066
10/26/2020 2:30:00 AM 7.4868 2.1312
10/26/2020 2:45:00 AM 7.4872 2.2001
10/26/2020 3:00:00 AM 7.4853 2.2216
10/26/2020 3:15:00 AM 7.4881 2.2813
10/26/2020 3:30:00 AM 7.4919 2.2467
10/26/2020 3:45:00 AM 7.4986 2.2446
10/26/2020 4:00:00 AM 7.5023 2.411
10/26/2020 4:15:00 AM 7.5079 2.2604
10/26/2020 4:30:00 AM 7.5132 2.2233
10/26/2020 4:45:00 AM 7.5046 2.198
10/26/2020 5:00:00 AM 7.5146 2.5571
10/26/2020 5:15:00 AM 7.53 2.961
10/26/2020 5:30:00 AM 7.5433 2.178
10/26/2020 5:45:00 AM 7.5502 2.1999
10/26/2020 6:00:00 AM 7.5646 2.3764
10/26/2020 6:15:00 AM 7.575 2.1252
10/26/2020 6:30:00 AM 7.585 2.0311
10/26/2020 6:45:00 AM 7.5933 2.0375
10/26/2020 7:00:00 AM 7.6021 2.03
10/26/2020 7:15:00 AM 7.605 2.0323
10/26/2020 7:30:00 AM 7.604 2.0933
10/26/2020 7:45:00 AM 7.6029 2.0906
10/26/2020 8:00:00 AM 7.6035 2.0361
10/26/2020 8:15:00 AM 7.6096 2.0232
10/26/2020 8:30:00 AM 7.6144 2.0674
10/26/2020 8:45:00 AM 7.6146 2.1
10/26/2020 9:00:00 AM 7.6175 2.2556
10/26/2020 9:15:00 AM 7.6143 2.1696
10/26/2020 9:30:00 AM 7.6116 2.1058
10/26/2020 9:45:00 AM 7.6108 1.9975
10/26/2020 10:00:00 AM 7.6101 1.9369
10/26/2020 10:15:00 AM 7.6108 1.9331
10/26/2020 10:30:00 AM 7.6093 2.019
10/26/2020 10:45:00 AM 7.6031 2.0851
10/26/2020 11:00:00 AM 7.5976 1.9779
10/26/2020 11:15:00 AM 7.5887 1.9489
10/26/2020 11:30:00 AM 7.5863 1.918
10/26/2020 11:45:00 AM 7.5852 2
10/28/2020 6:00:00 PM 7.5825 3.814
10/28/2020 6:15:00 PM 7.5795 3.8483
10/28/2020 6:30:00 PM 7.5758 3.8383
10/28/2020 6:45:00 PM 7.57 3.9195
10/28/2020 7:00:00 PM 7.5639 3.9166
10/28/2020 7:15:00 PM 7.5596 3.9761
10/28/2020 7:30:00 PM 7.554 4.0499
10/28/2020 7:45:00 PM 7.5459 4.061
10/28/2020 8:00:00 PM 7.5366 4.1388
10/28/2020 8:15:00 PM 7.5356 4.2079
10/28/2020 8:30:00 PM 7.5317 4.262
10/28/2020 8:45:00 PM 7.5205 4.4198
10/28/2020 9:00:00 PM 7.5099 4.4973
10/28/2020 9:15:00 PM 7.5045 4.4764
10/28/2020 9:30:00 PM 7.5015 4.4522
10/28/2020 9:45:00 PM 7.4993 4.4592
10/28/2020 10:00:00 PM 7.4873 4.7007
10/28/2020 10:15:00 PM 7.4904 4.6548
10/28/2020 10:30:00 PM 7.4904 4.5711
10/28/2020 10:45:00 PM 7.4848 4.6349
10/28/2020 11:00:00 PM 7.4766 4.6474
10/28/2020 11:15:00 PM 7.4707 4.5842
10/28/2020 11:30:00 PM 7.4674 4.5453
10/28/2020 11:45:00 PM 7.465 4.4536
10/29/2020 12:00:00 AM 7.4635 4.4663
10/29/2020 12:15:00 AM 7.461 4.4368
10/29/2020 12:30:00 AM 7.461 4.4254
10/29/2020 12:45:00 AM 7.4601 4.4951
10/29/2020 1:00:00 AM 7.4562 4.4165
10/29/2020 1:15:00 AM 7.4569 4.368
10/29/2020 1:30:00 AM 7.459 4.3438
10/29/2020 1:45:00 AM 7.4583 4.4183
10/29/2020 2:00:00 AM 7.4577 4.4218
10/29/2020 2:15:00 AM 7.4595 4.4303
10/29/2020 2:30:00 AM 7.4599 4.5052
10/29/2020 2:45:00 AM 7.4589 4.6846
10/29/2020 3:00:00 AM 7.4648 4.7387
10/29/2020 3:15:00 AM 7.4705 4.6767
10/29/2020 3:30:00 AM 7.4775 4.5267
10/29/2020 3:45:00 AM 7.4781 4.4428
10/29/2020 4:00:00 AM 7.4803 4.529
10/29/2020 4:15:00 AM 7.4833 4.5347
10/29/2020 4:30:00 AM 7.4842 4.3854
10/29/2020 4:45:00 AM 7.4911 4.3508
10/29/2020 5:00:00 AM 7.4992 4.3277
10/29/2020 5:15:00 AM 7.5041 4.3107
10/29/2020 5:30:00 AM 7.5027 4.2345
10/29/2020 5:45:00 AM 7.5066 4.1754
10/29/2020 6:00:00 AM 7.4957 4.2494
10/29/2020 6:15:00 AM 7.5097 4.1568
10/29/2020 6:30:00 AM 7.5269 4.152
10/29/2020 6:45:00 AM 7.5384 4.1383
10/29/2020 7:00:00 AM 7.5425 4.0287
10/29/2020 7:15:00 AM 7.5424 4.0339
10/29/2020 7:30:00 AM 7.5441 4.0472
10/29/2020 7:45:00 AM 7.5459 4.0485
10/29/2020 8:00:00 AM 7.5496 4.0406
10/29/2020 8:15:00 AM 7.5512 4.0399
10/29/2020 8:30:00 AM 7.5531 4.0525
10/29/2020 8:45:00 AM 7.5521 4.0435
10/29/2020 9:00:00 AM 7.5565 4.0451
10/29/2020 9:15:00 AM 7.5585 4.0486
10/29/2020 9:30:00 AM 7.5684 4.0544
10/29/2020 9:45:00 AM 7.5701 4.051
10/29/2020 10:00:00 AM 7.5706 4.0268
10/29/2020 10:15:00 AM 7.574 4.0249
10/29/2020 10:30:00 AM 7.5754 4.1013
10/29/2020 10:45:00 AM 7.578 4.1585
10/29/2020 11:00:00 AM 7.5779 4.1591
10/29/2020 11:15:00 AM 7.5758 4.1317
10/29/2020 11:30:00 AM 7.5778 4.1523
10/29/2020 11:45:00 AM 7.5806 4.142
10/29/2020 12:00:00 PM 7.5782 4.1483
10/29/2020 12:15:00 PM 7.5702 4.1625
10/29/2020 12:30:00 PM 7.5666 4.1182
10/29/2020 12:45:00 PM 7.5655 4.1387
10/29/2020 1:00:00 PM 7.5612 4.0294
10/29/2020 1:15:00 PM 7.5563 4.061
10/29/2020 1:30:00 PM 7.5528 4.0296
10/29/2020 1:45:00 PM 7.6122 4.0504
10/29/2020 2:00:00 PM 7.7892 3.9908
10/29/2020 2:15:00 PM 7.905 3.9232
10/29/2020 2:30:00 PM 7.9605 3.9294
10/29/2020 2:45:00 PM 7.9962 3.9423
10/29/2020 3:00:00 PM 7.998 4.0976
10/29/2020 3:15:00 PM 8.0047 4.2387
10/29/2020 3:30:00 PM 7.9913 4.2424
10/29/2020 3:45:00 PM 7.9409 4.2341
10/29/2020 4:00:00 PM 7.887 4.2632
10/29/2020 4:15:00 PM 7.8357 4.3278
10/29/2020 4:30:00 PM 7.8151 4.6228
10/29/2020 4:45:00 PM 7.8185 4.9768
10/29/2020 5:00:00 PM 7.8112 5.388
10/29/2020 5:15:00 PM 7.7901 5.3919
10/29/2020 5:30:00 PM 7.7361 5.6393
10/29/2020 5:45:00 PM 7.7056 5.8
10/29/2020 6:00:00 PM 7.6283 5.6474
10/29/2020 6:15:00 PM 7.612 5.7331
10/29/2020 6:30:00 PM 7.6268 5.8099
10/29/2020 6:45:00 PM 7.6595 5.9795
10/29/2020 7:00:00 PM 7.6196 6.1144
10/29/2020 7:15:00 PM 7.5546 6.3668
10/29/2020 7:30:00 PM 7.5516 6.8861
10/29/2020 7:45:00 PM 7.5484 7.6111
10/29/2020 8:00:00 PM 7.5684 8.3773
10/29/2020 8:15:00 PM 7.6114 8.8256
10/29/2020 8:30:00 PM 7.5676 8.9387
10/29/2020 8:45:00 PM 7.5362 9.1001
10/29/2020 9:00:00 PM 7.5388 9.4874
10/29/2020 9:15:00 PM 7.5338 9.5872
10/29/2020 9:30:00 PM 7.5424 9.4706
10/29/2020 9:45:00 PM 7.5754 9.1952
10/29/2020 10:00:00 PM 7.5476 8.5118
10/29/2020 10:15:00 PM 7.5083 8.5369
10/29/2020 10:30:00 PM 7.4883 11.2469
10/29/2020 10:45:00 PM 7.4813 10.8196
10/29/2020 11:00:00 PM 7.5002 9.7075
10/29/2020 11:15:00 PM 7.5373 9.1247
10/29/2020 11:30:00 PM 7.5969 8.7281
10/29/2020 11:45:00 PM 7.5362 8.6998
10/30/2020 12:00:00 AM 7.5158 5.5283
10/30/2020 12:15:00 AM 7.5351 5.6072
10/30/2020 12:30:00 AM 7.5066 6.0133
10/30/2020 12:45:00 AM 7.4971 6.6818
10/30/2020 1:00:00 AM 7.4902 6.511
10/30/2020 1:15:00 AM 7.4749 7.2506
10/30/2020 1:30:00 AM 7.4761 6.1592
10/30/2020 1:45:00 AM 7.4737 5.6388
10/30/2020 2:00:00 AM 7.4738 5.5534
10/30/2020 2:15:00 AM 7.4914 5.94
10/30/2020 2:30:00 AM 7.5068 6.0184
10/30/2020 2:45:00 AM 7.4886 6.0001
10/30/2020 3:00:00 AM 7.4651 6.0831
10/30/2020 3:15:00 AM 7.4673 6.0033
10/30/2020 3:30:00 AM 7.4621 5.7729
10/30/2020 3:45:00 AM 7.4708 5.5698
10/30/2020 4:00:00 AM 7.5646 5.5456
10/30/2020 4:15:00 AM 7.6024 7.9378
10/30/2020 4:30:00 AM 7.5032 5.8683
10/30/2020 4:45:00 AM 7.4949 5.8121
10/30/2020 5:00:00 AM 7.5018 5.7948
10/30/2020 5:15:00 AM 7.5114 7.7832
10/30/2020 5:30:00 AM 7.6629 6.3042
10/30/2020 5:45:00 AM 7.7588 5.6
10/30/2020 6:00:00 AM 7.6471 5.7484
10/30/2020 6:15:00 AM 7.59 5.4809
10/30/2020 6:30:00 AM 7.5708 5.4072
10/30/2020 6:45:00 AM 7.5936 5.3492
10/30/2020 7:00:00 AM 7.7275 5.4244
10/30/2020 7:15:00 AM 7.7933 5.6507
10/30/2020 7:30:00 AM 7.6613 5.8681
10/30/2020 7:45:00 AM 7.5984 5.8933
10/30/2020 8:00:00 AM 7.5624 5.9973
10/30/2020 8:15:00 AM 7.5843 6.1598
10/30/2020 8:30:00 AM 7.7296 6.3808
10/30/2020 8:45:00 AM 7.8176 6.5001
10/30/2020 9:00:00 AM 7.6451 6.5877
10/30/2020 9:15:00 AM 7.6056 8.0022
10/30/2020 9:30:00 AM 7.5905 6.6948
10/30/2020 9:45:00 AM 7.6456 6.6616
10/30/2020 10:00:00 AM 7.7507 6.6433
10/30/2020 10:15:00 AM 7.712 6.6603
10/30/2020 10:30:00 AM 7.6096 6.6794
10/30/2020 10:45:00 AM 7.5627 6.929
10/30/2020 11:00:00 AM 7.545 6.6983
10/30/2020 11:15:00 AM 7.5509 8.6318
10/30/2020 11:30:00 AM 7.6671 6.5215
10/30/2020 11:45:00 AM 7.7294 6.4
10/30/2020 12:00:00 PM 7.6063 6.1729
10/30/2020 12:15:00 PM 7.5314 7.0894
10/30/2020 12:30:00 PM 7.5013 6.0786
10/30/2020 12:45:00 PM 7.4915 6.0443
10/30/2020 1:00:00 PM 7.4783 5.8066
10/30/2020 1:15:00 PM 7.4943 5.7454
10/30/2020 1:30:00 PM 7.4834 5.7627
10/30/2020 1:45:00 PM 7.4515 5.8092
10/30/2020 2:00:00 PM 7.4418 5.7232
10/30/2020 2:15:00 PM 7.4327 7.5792
10/30/2020 2:30:00 PM 7.4347 5.5953
10/30/2020 2:45:00 PM 7.4467 5.4382
10/30/2020 3:00:00 PM 7.5435 5.4971
10/30/2020 3:15:00 PM 7.5114 5.4668
10/30/2020 3:30:00 PM 7.4459 5.4585
10/30/2020 3:45:00 PM 7.4381 5.4917
10/30/2020 4:00:00 PM 7.4458 5.4749
10/30/2020 4:15:00 PM 7.4434 6.9505
10/30/2020 4:30:00 PM 7.4521 5.8841
10/30/2020 4:45:00 PM 7.5811 5.3565
10/30/2020 5:00:00 PM 7.5666 5.2855
10/30/2020 5:15:00 PM 7.4999 5.246
10/30/2020 5:30:00 PM 7.5092 5.2387
10/30/2020 5:45:00 PM 7.5655 5.2684
10/30/2020 6:00:00 PM 7.6126 5.2046
10/30/2020 6:15:00 PM 7.7398 5.2137
10/30/2020 6:30:00 PM 7.8743 5.1685
10/30/2020 6:45:00 PM 7.8133 5.2179
10/30/2020 7:00:00 PM 7.7429 5.1802
10/30/2020 7:15:00 PM 7.7131 5.1789
10/30/2020 7:30:00 PM 7.6926 5.2099
10/30/2020 7:45:00 PM 7.7297 5.1569
10/30/2020 8:00:00 PM 7.8402 5.1369
10/30/2020 8:15:00 PM 7.8272 5.1548
10/30/2020 8:30:00 PM 7.7189 5.1416
10/30/2020 8:45:00 PM 7.6874 5.1001
10/30/2020 9:00:00 PM 7.6403 5.1016
10/30/2020 9:15:00 PM 7.661 5.0431
10/30/2020 9:30:00 PM 7.7762 5.035
10/30/2020 9:45:00 PM 7.8225 5.0359
10/30/2020 10:00:00 PM 7.7007 5.0397
10/30/2020 10:15:00 PM 7.6331 5.0401
10/30/2020 10:30:00 PM 7.5873 16.5468
10/30/2020 10:45:00 PM 7.5694 5.7955
10/30/2020 11:00:00 PM 7.712 6.2912
10/30/2020 11:15:00 PM 7.8147 5.9779
10/30/2020 11:30:00 PM 7.7055 5.9202
10/30/2020 11:45:00 PM 7.644 5.3999
10/31/2020 12:00:00 AM 7.5786 5.1653
10/31/2020 12:15:00 AM 7.5643 6.7135
10/31/2020 12:30:00 AM 7.6285 6.266
10/31/2020 12:45:00 AM 7.764 5.4337
10/31/2020 1:00:00 AM 7.6713 5.3517
10/31/2020 1:15:00 AM 7.576 5.1614
10/31/2020 1:30:00 AM 7.5416 6.0896
10/31/2020 1:45:00 AM 7.5292 5.8667
10/31/2020 2:00:00 AM 7.5977 5.7178
10/31/2020 2:15:00 AM 7.7756 18.3074
10/31/2020 2:30:00 AM 7.6413 4.4578
10/31/2020 2:45:00 AM 7.5488 4.4999
10/31/2020 3:00:00 AM 7.558 5.2282
10/31/2020 3:15:00 AM 7.5647 4.5419
10/31/2020 3:30:00 AM 7.5881 4.6001
10/31/2020 3:45:00 AM 7.6463 4.8008
10/31/2020 4:00:00 AM 7.5892 5.1878
10/31/2020 4:15:00 AM 7.5697 4.5634
10/31/2020 4:30:00 AM 7.5556 4.2706
10/31/2020 4:45:00 AM 7.5582 4.1931
10/31/2020 5:00:00 AM 7.6376 4.0753
10/31/2020 5:15:00 AM 7.7238 4.7957
10/31/2020 5:30:00 AM 7.6478 5.0063
10/31/2020 5:45:00 AM 7.6034 5.2
10/31/2020 6:00:00 AM 7.5415 4.2144
10/31/2020 6:15:00 AM 7.5519 4.1055
10/31/2020 6:30:00 AM 7.641 3.9839
10/31/2020 6:45:00 AM 7.739 3.9462
10/31/2020 7:00:00 AM 7.6589 3.909
10/31/2020 7:15:00 AM 7.591 3.8572
10/31/2020 7:30:00 AM 7.5615 3.9343
10/31/2020 7:45:00 AM 7.5844 4.0339
10/31/2020 8:00:00 AM 7.738 13.7882
10/31/2020 8:15:00 AM 7.8737 4.3647
10/31/2020 8:30:00 AM 7.752 4.0232
10/31/2020 8:45:00 AM 7.6762 4
10/31/2020 9:00:00 AM 7.5949 3.9
10/31/2020 9:15:00 AM 7.5917 5.7252
10/31/2020 9:30:00 AM 7.7055 3.8458
10/31/2020 9:45:00 AM 7.8313 3.703
10/31/2020 10:00:00 AM 7.7172 5.1741
10/31/2020 10:15:00 AM 7.6408 4.1003
10/31/2020 10:30:00 AM 7.6132 4.3602
10/31/2020 10:45:00 AM 7.6048 3.8865
10/31/2020 11:00:00 AM 7.6701 3.5926
10/31/2020 11:15:00 AM 7.8009 3.5145
10/31/2020 11:30:00 AM 7.711 6.2909
10/31/2020 11:45:00 AM 7.6468 3.4002
10/31/2020 12:00:00 PM 7.5839 4.7186
10/31/2020 12:15:00 PM 7.5719 3.6934
10/31/2020 12:30:00 PM 7.5783 3.4412
10/31/2020 12:45:00 PM 7.6793 3.4484
10/31/2020 1:00:00 PM 7.7275 4.3809
10/31/2020 1:15:00 PM 7.6111 3.6833
10/31/2020 1:30:00 PM 7.5576 4.1099
10/31/2020 1:45:00 PM 7.5301 4.1219
10/31/2020 2:00:00 PM 7.5158 3.4274
10/31/2020 2:15:00 PM 7.5275 3.3083
10/31/2020 2:30:00 PM 7.6399 3.238
10/31/2020 2:45:00 PM 7.7127 3.1437
10/31/2020 3:00:00 PM 7.5821 3.0782
10/31/2020 3:15:00 PM 7.528 3.0543
10/31/2020 3:30:00 PM 7.4984 3.2477
10/31/2020 3:45:00 PM 7.4835 3.3301
10/31/2020 4:00:00 PM 7.5041 3.2286
10/31/2020 4:15:00 PM 7.6015 3.1495
10/31/2020 4:30:00 PM 7.5667 3.2762
10/31/2020 4:45:00 PM 7.4886 3.336
10/31/2020 5:00:00 PM 7.4653 3.3481
10/31/2020 5:15:00 PM 7.4588 3.3425
10/31/2020 5:30:00 PM 7.4586 3.3449
10/31/2020 5:45:00 PM 7.4634 3.2001
10/31/2020 6:00:00 PM 7.5514 3.3128
10/31/2020 6:15:00 PM 7.473 3.3403
10/31/2020 6:30:00 PM 7.4517 3.3389
10/31/2020 6:45:00 PM 7.4452 3.3728
10/31/2020 7:00:00 PM 7.4425 3.5072
10/31/2020 7:15:00 PM 7.4841 3.619
10/31/2020 7:30:00 PM 7.6311 3.6308
10/31/2020 7:45:00 PM 7.493 3.7096
10/31/2020 8:00:00 PM 7.4315 3.73
10/31/2020 8:15:00 PM 7.4252 3.8359
10/31/2020 8:30:00 PM 7.4252 3.7886
10/31/2020 8:45:00 PM 7.4256 3.8003
10/31/2020 9:00:00 PM 7.6346 3.7327
10/31/2020 9:15:00 PM 7.544 3.7677
10/31/2020 9:30:00 PM 7.434 3.7427
10/31/2020 9:45:00 PM 7.4231 3.8045
10/31/2020 10:00:00 PM 7.423 3.8616
10/31/2020 10:15:00 PM 7.4652 3.7365
10/31/2020 10:30:00 PM 7.6436 5.8014
10/31/2020 10:45:00 PM 7.4788 4.1959
10/31/2020 11:00:00 PM 7.4522 4.4071
10/31/2020 11:15:00 PM 7.473 4.2729
10/31/2020 11:30:00 PM 7.4844 4.0747
10/31/2020 11:45:00 PM 7.4984 4.1001
11/1/2020 12:00:00 AM 7.7676 3.85
11/1/2020 12:15:00 AM 7.6192 3.8256
11/1/2020 12:30:00 AM 7.5396 4.4497
11/1/2020 12:45:00 AM 7.5305 3.8679
11/1/2020 1:00:00 AM 7.5331 3.7146
11/1/2020 1:15:00 AM 7.6713 3.7928
11/1/2020 1:30:00 AM 7.7857 4.6773
11/1/2020 1:45:00 AM 7.6348 3.7692
11/1/2020 2:00:00 AM 7.8015 3.5525
11/1/2020 2:15:00 AM 7.6378 3.9464
11/1/2020 2:30:00 AM 7.5621 3.7318
11/1/2020 2:45:00 AM 7.546 3.6001
11/1/2020 3:00:00 AM 7.5542 3.4864
11/1/2020 3:15:00 AM 7.7056 3.4635
11/1/2020 3:30:00 AM 7.6511 3.5304
11/1/2020 3:45:00 AM 7.5411 3.4869
11/1/2020 4:00:00 AM 7.5167 3.4684
11/1/2020 4:15:00 AM 7.507 3.6732
11/1/2020 4:30:00 AM 7.5858 3.9045
11/1/2020 4:45:00 AM 7.7476 3.3809
11/1/2020 5:00:00 AM 7.6285 3.9306
11/1/2020 5:15:00 AM 7.5281 3.4321
11/1/2020 5:30:00 AM 7.4996 3.3718
11/1/2020 5:45:00 AM 7.4914 3.3
11/1/2020 6:00:00 AM 7.614 3.2204
11/1/2020 6:15:00 AM 7.6543 5.1012
11/1/2020 6:30:00 AM 7.5236 3.3842
11/1/2020 6:45:00 AM 7.4935 3.0751
11/1/2020 7:00:00 AM 7.4848 2.9721
11/1/2020 7:15:00 AM 7.507 2.9417
11/1/2020 7:30:00 AM 7.669 2.8705
11/1/2020 7:45:00 AM 7.6142 2.848
11/1/2020 8:00:00 AM 7.5046 2.8537
11/1/2020 8:15:00 AM 7.4835 2.8473
11/1/2020 8:30:00 AM 7.4782 2.7648
11/1/2020 8:45:00 AM 7.4802 2.8997
11/1/2020 9:00:00 AM 7.6671 2.7752
11/1/2020 9:15:00 AM 7.6258 2.8402
11/1/2020 9:30:00 AM 7.5208 2.8826
11/1/2020 9:45:00 AM 7.4904 3.6533
11/1/2020 10:00:00 AM 7.4442 73.6581
11/1/2020 10:15:00 AM 7.4748 4.6031
11/1/2020 10:30:00 AM 7.534 3.153
11/1/2020 10:45:00 AM 7.5374 3.1412
11/1/2020 11:00:00 AM 7.497 3.2821
11/1/2020 11:15:00 AM 7.4886 3.0576
11/1/2020 11:30:00 AM 7.4912 3.0219
11/1/2020 11:45:00 AM 7.4959 3.0338
11/1/2020 12:00:00 PM 7.5298 3.0174
11/1/2020 12:15:00 PM 7.553 2.9725
11/1/2020 12:30:00 PM 7.5 5.0141
11/1/2020 12:45:00 PM 7.4997 3.1188
11/1/2020 1:00:00 PM 7.4971 3.9575
11/1/2020 1:15:00 PM 7.5056 3.0209
11/1/2020 1:30:00 PM 7.5208 3.7753
11/1/2020 1:45:00 PM 7.5794 4.0707
11/1/2020 2:00:00 PM 7.5311 2.8195
11/1/2020 2:15:00 PM 7.5033 2.7285
11/1/2020 2:30:00 PM 7.5002 2.6475
11/1/2020 2:45:00 PM 7.5036 2.7122
11/1/2020 3:00:00 PM 7.5068 2.7464
11/1/2020 3:15:00 PM 7.5764 2.7271
11/1/2020 3:30:00 PM 7.5959 2.7361
11/1/2020 3:45:00 PM 7.5171 2.7454
11/1/2020 4:00:00 PM 7.5019 2.6601
11/1/2020 4:15:00 PM 7.5015 2.6475
11/1/2020 4:30:00 PM 7.5012 2.8139
11/1/2020 4:45:00 PM 7.5155 3.041
11/1/2020 5:00:00 PM 7.613 2.9529
11/1/2020 5:15:00 PM 7.542 2.9094
11/1/2020 5:30:00 PM 7.4964 2.8623
11/1/2020 5:45:00 PM 7.4942 2.9998
11/1/2020 6:00:00 PM 7.4822 3.0304
11/1/2020 6:15:00 PM 7.4932 3.1692
11/1/2020 6:30:00 PM 7.5967 3.3496
11/1/2020 6:45:00 PM 7.4993 3.4853
11/1/2020 7:00:00 PM 7.469 3.5264
11/1/2020 7:15:00 PM 7.4682 3.455
11/1/2020 7:30:00 PM 7.4688 3.3439
11/1/2020 7:45:00 PM 7.495 3.4302
11/1/2020 8:00:00 PM 7.6152 3.4551
11/1/2020 8:15:00 PM 7.4886 3.5386
11/1/2020 8:30:00 PM 7.466 3.687
11/1/2020 8:45:00 PM 7.4662 3.8
11/1/2020 9:00:00 PM 7.4863 3.7769
11/1/2020 9:15:00 PM 7.6128 3.7343
11/1/2020 9:30:00 PM 7.7321 3.7421
11/1/2020 9:45:00 PM 7.5722 3.7372
11/1/2020 10:00:00 PM 7.5312 4.0017
11/1/2020 10:15:00 PM 7.5234 4.5473
11/1/2020 10:30:00 PM 7.6346 3.9422
11/1/2020 10:45:00 PM 7.8976 3.9157
11/1/2020 11:00:00 PM 7.8843 4.0057
11/1/2020 11:15:00 PM 7.7333 4.2591
11/1/2020 11:30:00 PM 7.6728 4.4446
11/1/2020 11:45:00 PM 7.658 4.0999
11/2/2020 12:00:00 AM 7.8962 5.4493
11/2/2020 12:15:00 AM 7.9464 4.0773
11/2/2020 12:30:00 AM 7.7798 4.0558
11/2/2020 12:45:00 AM 7.6983 4.3912
11/2/2020 1:00:00 AM 7.6969 4.4778
11/2/2020 1:15:00 AM 7.8243 4.5727
11/2/2020 1:30:00 AM 7.9731 4.2172
11/2/2020 1:45:00 AM 7.904 4.0133
11/2/2020 2:00:00 AM 7.7578 3.9446
11/2/2020 2:15:00 AM 7.6913 3.9215
11/2/2020 2:30:00 AM 7.6625 3.8545
11/2/2020 2:45:00 AM 7.6776 3.7999
11/2/2020 3:00:00 AM 7.9417 3.7733
11/2/2020 3:15:00 AM 7.8966 3.8239
11/2/2020 3:30:00 AM 7.7638 3.8072
11/2/2020 3:45:00 AM 7.6865 3.7762
11/2/2020 4:00:00 AM 7.703 3.7829
11/2/2020 4:15:00 AM 7.8556 3.9415
11/2/2020 4:30:00 AM 7.8863 4.008
11/2/2020 4:45:00 AM 7.726 9.3043
11/2/2020 5:00:00 AM 7.5326 3.6293
11/2/2020 5:15:00 AM 7.6226 3.2132
11/2/2020 5:30:00 AM 7.6852 2.8406
11/2/2020 5:45:00 AM 7.7112 2.7
11/2/2020 6:00:00 AM 7.7232 2.6296
11/2/2020 6:15:00 AM 7.7106 2.6409
11/2/2020 6:30:00 AM 7.7349 2.7334
11/2/2020 6:45:00 AM 7.7481 2.8061
11/2/2020 7:00:00 AM 7.8105 2.8379
11/2/2020 7:15:00 AM 7.9153 2.776
11/2/2020 7:30:00 AM 7.8662 2.8085
11/2/2020 7:45:00 AM 7.8075 2.8396
11/2/2020 8:00:00 AM 7.7914 2.8091
11/2/2020 8:15:00 AM 7.8175 2.9097
11/2/2020 8:30:00 AM 7.9131 2.9455
11/2/2020 8:45:00 AM 7.9534 2.9001
11/2/2020 9:00:00 AM 7.8547 2.9765
11/2/2020 9:15:00 AM 7.8096 3.0719
11/2/2020 9:30:00 AM 7.7777 5.7644
11/2/2020 9:45:00 AM 7.8201 3.7673
11/2/2020 10:00:00 AM 7.9607 2.9163
11/2/2020 10:15:00 AM 8.0426 2.9508
11/2/2020 10:30:00 AM 7.9179 3.0351
11/2/2020 10:45:00 AM 7.8215 3.0446
11/2/2020 11:00:00 AM 7.79 3.0215
11/2/2020 11:15:00 AM 7.8583 2.9408
11/2/2020 11:30:00 AM 8.0014 2.8573
11/2/2020 11:45:00 AM 8.0584 2.8999
11/2/2020 12:00:00 PM 7.9063 2.8514
11/2/2020 12:15:00 PM 7.805 2.76
11/2/2020 12:30:00 PM 7.7755 2.7653
11/2/2020 12:45:00 PM 7.7964 2.8501
11/2/2020 1:00:00 PM 7.9439 2.8403
11/2/2020 1:15:00 PM 8.0601 3.0372
11/2/2020 1:30:00 PM 7.9198 4.6271
11/2/2020 1:45:00 PM 7.8087 2.976
11/2/2020 2:00:00 PM 7.7714 2.8006
11/2/2020 2:15:00 PM 7.771 2.7098
11/2/2020 2:30:00 PM 7.8755 2.6312
11/2/2020 2:45:00 PM 8.0398 2.6406
11/2/2020 3:00:00 PM 8.0261 2.6289
11/2/2020 3:15:00 PM 7.8575 2.6345
11/2/2020 3:30:00 PM 7.7917 2.6479
11/2/2020 3:45:00 PM 7.7826 2.6339
11/2/2020 4:00:00 PM 7.8573 2.6387
11/2/2020 4:15:00 PM 8.0417 2.6066
11/2/2020 4:30:00 PM 8.1098 2.6197
11/2/2020 4:45:00 PM 7.9634 2.748
11/2/2020 5:00:00 PM 7.8644 2.7316
11/2/2020 5:15:00 PM 7.83 2.7402
11/2/2020 5:30:00 PM 7.9216 2.6046
11/2/2020 5:45:00 PM 8.0192 2.5998
11/2/2020 6:00:00 PM 8.1537 2.4909
11/2/2020 6:15:00 PM 8.0326 2.5536
11/2/2020 6:30:00 PM 7.8906 2.5638
11/2/2020 6:45:00 PM 7.835 2.5486
11/2/2020 7:00:00 PM 7.8613 2.5429
11/2/2020 7:15:00 PM 7.9895 2.5291
11/2/2020 7:30:00 PM 8.0841 2.5352
11/2/2020 7:45:00 PM 8.0744 2.5368
11/2/2020 8:00:00 PM 7.8989 2.5606
11/2/2020 8:15:00 PM 7.8125 2.5446
11/2/2020 8:30:00 PM 7.7853 2.5976
11/2/2020 8:45:00 PM 7.7896 2.9
11/2/2020 9:00:00 PM 7.9696 2.6436
11/2/2020 9:15:00 PM 8.0398 2.5705
11/2/2020 9:30:00 PM 7.8853 2.626
11/2/2020 9:45:00 PM 7.7788 2.6922
11/2/2020 10:00:00 PM 7.7513 2.8351
11/2/2020 10:15:00 PM 7.7762 2.7537
11/2/2020 10:30:00 PM 7.8969 2.7516
11/2/2020 10:45:00 PM 8.0097 2.7962
11/2/2020 11:00:00 PM 7.9776 2.7658
11/2/2020 11:15:00 PM 7.8155 2.7034
11/2/2020 11:30:00 PM 7.7522 2.6592
11/2/2020 11:45:00 PM 7.7392 2.6998
11/3/2020 12:00:00 AM 7.8717 2.8133
11/3/2020 12:15:00 AM 7.9848 2.8657
11/3/2020 12:30:00 AM 7.9532 3.1439
11/3/2020 12:45:00 AM 7.8127 3.0988
11/3/2020 1:00:00 AM 7.7696 2.9158
11/3/2020 1:15:00 AM 7.7815 2.9713
11/3/2020 1:30:00 AM 7.8842 2.8974
11/3/2020 1:45:00 AM 7.9857 2.7883
11/3/2020 2:00:00 AM 7.9767 2.7775
11/3/2020 2:15:00 AM 7.8296 2.7458
11/3/2020 2:30:00 AM 7.7701 2.734
11/3/2020 2:45:00 AM 7.7532 2.7998
11/3/2020 3:00:00 AM 7.8462 2.7345
11/3/2020 3:15:00 AM 7.9681 2.7489
11/3/2020 3:30:00 AM 7.9734 2.7581
11/3/2020 3:45:00 AM 7.827 2.7375
11/3/2020 4:00:00 AM 7.7624 2.7298
11/3/2020 4:15:00 AM 7.7592 2.7381
11/3/2020 4:30:00 AM 7.8564 2.7722
11/3/2020 4:45:00 AM 7.9772 2.8141
11/3/2020 5:00:00 AM 7.9792 2.7384
11/3/2020 5:15:00 AM 7.8336 2.6912
11/3/2020 5:30:00 AM 7.7611 2.6608
11/3/2020 5:45:00 AM 7.735 2.6003
11/3/2020 6:00:00 AM 7.636 2.5913
11/3/2020 6:15:00 AM 7.9027 2.5604
11/3/2020 6:30:00 AM 7.9371 2.5469
11/3/2020 6:45:00 AM 7.789 2.5379
11/3/2020 7:00:00 AM 7.7183 2.5872
11/3/2020 7:15:00 AM 7.7011 2.4697
11/3/2020 7:30:00 AM 7.7521 2.4417
11/3/2020 7:45:00 AM 7.8721 2.4439
11/3/2020 8:00:00 AM 7.8326 2.4599
11/3/2020 8:15:00 AM 7.7228 2.3676
11/3/2020 8:30:00 AM 7.6916 2.3374
11/3/2020 8:45:00 AM 7.6818 2.4
11/3/2020 9:00:00 AM 7.7614 2.3384
11/3/2020 9:15:00 AM 7.874 2.3644
11/3/2020 9:30:00 AM 7.7503 2.3794
11/3/2020 9:45:00 AM 7.6856 2.3344
11/3/2020 10:00:00 AM 7.6596 3.3458
11/3/2020 10:15:00 AM 7.6926 2.4571
11/3/2020 10:30:00 AM 7.8141 2.2356
11/3/2020 10:45:00 AM 7.7773 2.2363
11/3/2020 11:00:00 AM 7.6771 2.231
11/3/2020 11:15:00 AM 7.6538 2.1579
11/3/2020 11:30:00 AM 7.6532 2.1275
11/3/2020 11:45:00 AM 7.6664 2.1995
11/3/2020 12:00:00 PM 7.7461 2.4982
11/3/2020 12:15:00 PM 7.6657 2.3959
11/3/2020 12:30:00 PM 7.6297 2.4118
11/3/2020 12:45:00 PM 7.6238 2.2424
11/3/2020 1:00:00 PM 7.6533 2.1547
11/3/2020 1:15:00 PM 7.7516 2.1473
11/3/2020 1:30:00 PM 7.7103 2.5642
11/3/2020 1:45:00 PM 7.6441 2.8103
11/3/2020 2:00:00 PM 7.6269 2.1587
11/3/2020 2:15:00 PM 7.6359 2.0628
11/3/2020 2:30:00 PM 7.6954 2.0298
11/3/2020 2:45:00 PM 7.7194 2.1396
11/3/2020 3:00:00 PM 7.6639 2.0381
11/3/2020 3:15:00 PM 7.6439 2.0437
11/3/2020 3:30:00 PM 7.6343 2.0333
11/3/2020 3:45:00 PM 7.6583 2.047
11/3/2020 4:00:00 PM 7.7229 2.041
11/3/2020 4:15:00 PM 7.6692 2.0565
11/3/2020 4:30:00 PM 7.6344 2.0557
11/3/2020 4:45:00 PM 7.6243 2.0564
11/3/2020 5:00:00 PM 7.6392 1.996
11/3/2020 5:15:00 PM 7.7214 1.9461
11/3/2020 5:30:00 PM 7.7102 1.9296
11/3/2020 5:45:00 PM 7.6608 1.9998
11/3/2020 6:00:00 PM 7.6145 1.9288
11/3/2020 6:15:00 PM 7.6172 1.9304
11/3/2020 6:30:00 PM 7.6663 1.9406
11/3/2020 6:45:00 PM 7.6834 2.0216
11/3/2020 7:00:00 PM 7.6181 2.0585
11/3/2020 7:15:00 PM 7.5894 2.2963
11/3/2020 7:30:00 PM 7.5994 2.1766
11/3/2020 7:45:00 PM 7.6428 2.1339
11/3/2020 8:00:00 PM 7.6882 2.1412
11/3/2020 8:15:00 PM 7.6118 2.1204
11/3/2020 8:30:00 PM 7.5883 2.1842
11/3/2020 8:45:00 PM 7.5852 2.1998
11/3/2020 9:00:00 PM 7.6126 2.227
11/3/2020 9:15:00 PM 7.7072 2.2443
11/3/2020 9:30:00 PM 7.6466 2.2677
11/3/2020 9:45:00 PM 7.5804 2.3174
11/3/2020 10:00:00 PM 7.5696 2.2464
11/3/2020 10:15:00 PM 7.5746 2.2067
11/3/2020 10:30:00 PM 7.6238 2.1901
11/3/2020 10:45:00 PM 7.7015 2.154
11/3/2020 11:00:00 PM 7.5909 2.1379
11/3/2020 11:15:00 PM 7.5617 2.1895
11/3/2020 11:30:00 PM 7.565 2.1441
11/3/2020 11:45:00 PM 7.5698 2.2
11/4/2020 12:00:00 AM 7.7582 2.1443
11/4/2020 12:15:00 AM 7.6548 2.1339
11/4/2020 12:30:00 AM 7.5577 2.1922
11/4/2020 12:45:00 AM 7.5573 2.1514
11/4/2020 1:00:00 AM 7.5946 2.1099
11/4/2020 1:15:00 AM 7.7673 2.0574
11/4/2020 1:30:00 AM 7.7691 2.1072
11/4/2020 1:45:00 AM 7.5912 2.1576
11/4/2020 2:00:00 AM 7.5682 2.1575
11/4/2020 2:15:00 AM 7.5886 2.0993
11/4/2020 2:30:00 AM 7.7539 2.0988
11/4/2020 2:45:00 AM 7.8414 2.1004
11/4/2020 3:00:00 AM 7.6449 2.0907
11/4/2020 3:15:00 AM 7.5877 2.1314
11/4/2020 3:30:00 AM 7.6177 2.1464
11/4/2020 3:45:00 AM 7.79 2.1663
11/4/2020 4:00:00 AM 7.7791 2.128
11/4/2020 4:15:00 AM 7.4991 2.218
11/4/2020 4:30:00 AM 7.5096 2.1053
11/4/2020 4:45:00 AM 7.5974 2.1653
11/4/2020 5:00:00 AM 7.76 2.1171
11/4/2020 5:15:00 AM 7.8723 2.0998
11/4/2020 5:30:00 AM 7.7328 2.0393
11/4/2020 5:45:00 AM 7.6636 2.0999
11/4/2020 6:00:00 AM 7.619 2.036
11/4/2020 6:15:00 AM 7.728 2.0624
11/4/2020 6:30:00 AM 7.8506 2.0664
11/4/2020 6:45:00 AM 7.7947 2.133
11/4/2020 7:00:00 AM 7.6477 2.0503
11/4/2020 7:15:00 AM 7.6214 1.9763
11/4/2020 7:30:00 AM 7.6763 1.9365
11/4/2020 7:45:00 AM 7.7881 1.921
11/4/2020 8:00:00 AM 7.7372 1.9487
11/4/2020 8:15:00 AM 7.621 1.9746
11/4/2020 8:30:00 AM 7.6011 1.9372
11/4/2020 8:45:00 AM 7.6118 1.8998
11/4/2020 9:00:00 AM 7.7579 1.9516
11/4/2020 9:15:00 AM 7.7193 2.0417
11/4/2020 9:30:00 AM 7.6058 1.9494
11/4/2020 9:45:00 AM 7.5728 2.8583
11/4/2020 10:00:00 AM 7.5866 1.9831
11/4/2020 10:15:00 AM 7.6757 1.9352
11/4/2020 10:30:00 AM 7.6184 1.8857
11/4/2020 10:45:00 AM 7.5503 1.8377
11/4/2020 11:00:00 AM 7.5322 1.8546
11/4/2020 11:15:00 AM 7.5402 1.846
11/4/2020 11:30:00 AM 7.6102 1.8702
11/4/2020 11:45:00 AM 7.644 1.8
11/4/2020 12:00:00 PM 7.5267 1.8458
11/4/2020 12:15:00 PM 7.4989 1.8879
11/4/2020 12:30:00 PM 7.4912 1.9476
11/4/2020 12:45:00 PM 7.5217 1.9419
11/4/2020 1:00:00 PM 7.5464 1.9307
11/4/2020 1:15:00 PM 7.5153 1.9364
11/4/2020 1:30:00 PM 7.5008 1.8308
11/4/2020 1:45:00 PM 7.4974 1.8397
11/4/2020 2:00:00 PM 7.5132 1.8244
11/4/2020 2:15:00 PM 7.5292 1.8106
11/4/2020 2:30:00 PM 7.5116 1.8388
11/4/2020 2:45:00 PM 7.5017 1.853
11/4/2020 3:00:00 PM 7.4987 1.9662
11/4/2020 3:15:00 PM 7.5134 2.1741
11/4/2020 3:30:00 PM 7.5334 2.134
11/4/2020 3:45:00 PM 7.5252 1.9969
11/4/2020 4:00:00 PM 7.5204 2.1773
11/4/2020 4:15:00 PM 7.518 2.1185
11/4/2020 4:30:00 PM 7.5261 1.9916
11/4/2020 4:45:00 PM 7.5428 1.9284
11/4/2020 5:00:00 PM 7.5364 1.8352
11/4/2020 5:15:00 PM 7.5328 1.864
11/4/2020 5:30:00 PM 7.528 1.844
11/4/2020 5:45:00 PM 7.5278 1.8
11/4/2020 6:00:00 PM 7.5548 1.7656
11/4/2020 6:15:00 PM 7.5484 1.7408
11/4/2020 6:30:00 PM 7.5438 1.7228
11/4/2020 6:45:00 PM 7.5418 1.7277
11/4/2020 7:00:00 PM 7.552 1.7304
11/4/2020 7:15:00 PM 7.5614 1.7273
11/4/2020 7:30:00 PM 7.556 1.752
11/4/2020 7:45:00 PM 7.551 1.8395
11/4/2020 8:00:00 PM 7.549 1.8356
11/4/2020 8:15:00 PM 7.5497 2.0292
11/4/2020 8:30:00 PM 7.5477 2.0879
11/4/2020 8:45:00 PM 7.5544 2.2
11/4/2020 9:00:00 PM 7.5502 2.1353
11/4/2020 9:15:00 PM 7.5509 2.1945
11/4/2020 9:30:00 PM 7.5597 1.995
11/4/2020 9:45:00 PM 7.5526 1.9645
11/4/2020 10:00:00 PM 7.5445 1.978
11/4/2020 10:15:00 PM 7.5413 2.0017
11/4/2020 10:30:00 PM 7.5407 2.0361
11/4/2020 10:45:00 PM 7.5403 1.9761
11/4/2020 11:00:00 PM 7.5382 2.04
11/4/2020 11:15:00 PM 7.5369 2.0319
11/4/2020 11:30:00 PM 7.5324 2.0348
11/4/2020 11:45:00 PM 7.5418 2.1
11/5/2020 12:00:00 AM 7.5353 2.1957
11/5/2020 12:15:00 AM 7.5212 2.0597
11/5/2020 12:30:00 AM 7.5136 2.0384
11/5/2020 12:45:00 AM 7.5111 2.0379
11/5/2020 1:00:00 AM 7.5213 2.0457
11/5/2020 1:15:00 AM 7.5135 2.0384
11/5/2020 1:30:00 AM 7.5038 2.054
11/5/2020 1:45:00 AM 7.4925 1.9598
11/5/2020 2:00:00 AM 7.5025 1.9399
11/5/2020 2:15:00 AM 7.4969 1.8975
11/5/2020 2:30:00 AM 7.4793 1.8329
11/5/2020 2:45:00 AM 7.469 1.8999
11/5/2020 3:00:00 AM 7.4748 1.8224
11/5/2020 3:15:00 AM 7.4817 1.967
11/5/2020 3:30:00 AM 7.4701 1.9445
11/5/2020 3:45:00 AM 7.4627 1.8719
11/5/2020 4:00:00 AM 7.4535 1.8328
11/5/2020 4:15:00 AM 7.4658 1.8167
11/5/2020 4:30:00 AM 7.4563 1.8073
11/5/2020 4:45:00 AM 7.4427 1.9196
11/5/2020 5:00:00 AM 7.3223 1.9391
11/5/2020 5:15:00 AM 7.4121 1.948
11/5/2020 5:30:00 AM 7.4414 1.8581
11/5/2020 5:45:00 AM 7.427 1.8999
11/5/2020 6:00:00 AM 7.4257 1.8378
11/5/2020 6:15:00 AM 7.4255 1.8358
11/5/2020 6:30:00 AM 7.4452 1.9148
11/5/2020 6:45:00 AM 7.4274 1.9406
11/5/2020 7:00:00 AM 7.4168 1.9446
11/5/2020 7:15:00 AM 7.4142 1.9359
11/5/2020 7:30:00 AM 7.4353 1.9487
11/5/2020 7:45:00 AM 7.4277 1.9398
11/5/2020 8:00:00 AM 7.4147 1.9529
11/5/2020 8:15:00 AM 7.4121 2.0067
11/5/2020 8:30:00 AM 7.4163 2.0365
11/5/2020 8:45:00 AM 7.4368 2.0001
11/5/2020 9:00:00 AM 7.4175 2.0547
11/5/2020 9:15:00 AM 7.4135 2.0302
11/5/2020 9:30:00 AM 7.4116 2.0549
11/5/2020 9:45:00 AM 7.4211 2.0353
11/5/2020 10:00:00 AM 7.4244 2.0181
11/5/2020 10:15:00 AM 7.4216 2.0565
11/5/2020 10:30:00 AM 7.4201 2.0521
11/5/2020 10:45:00 AM 7.4204 2.0342
11/5/2020 11:00:00 AM 7.431 2.0407
11/5/2020 11:15:00 AM 7.4376 2.1224
11/5/2020 11:30:00 AM 7.4318 2.1561
11/5/2020 11:45:00 AM 7.4298 2.1999
11/5/2020 12:00:00 PM 7.4279 2.2058
11/5/2020 12:15:00 PM 7.4381 2.1329
11/5/2020 12:30:00 PM 7.4552 2.1396
11/5/2020 12:45:00 PM 7.4491 2.1502
11/5/2020 1:00:00 PM 7.4491 2.1443
11/5/2020 1:15:00 PM 7.4509 2.142
11/5/2020 1:30:00 PM 7.4585 2.1417
11/5/2020 1:45:00 PM 7.4835 2.1301
11/5/2020 2:00:00 PM 7.4864 2.166
11/5/2020 2:15:00 PM 7.4882 2.1928
11/5/2020 2:30:00 PM 7.4914 2.1612
11/5/2020 2:45:00 PM 7.4953 2.1412
11/5/2020 3:00:00 PM 7.5027 2.1353
11/5/2020 3:15:00 PM 7.5217 2.2549
11/5/2020 3:30:00 PM 7.5257 2.2681
11/5/2020 3:45:00 PM 7.529 2.247
11/5/2020 4:00:00 PM 7.5328 2.1676
11/5/2020 4:15:00 PM 7.5356 2.1478
11/5/2020 4:30:00 PM 7.5382 2.3009
11/5/2020 4:45:00 PM 7.5484 2.3036
11/5/2020 5:00:00 PM 7.5499 2.2451
11/5/2020 5:15:00 PM 7.5486 2.2741
11/5/2020 5:30:00 PM 7.5485 2.2606
11/5/2020 5:45:00 PM 7.546 2.2003
11/5/2020 6:00:00 PM 7.5468 2.2665
11/5/2020 6:15:00 PM 7.5554 2.268
11/5/2020 6:30:00 PM 7.5585 2.2261
11/5/2020 6:45:00 PM 7.5583 2.2873
11/5/2020 7:00:00 PM 7.56 2.3388
11/5/2020 7:15:00 PM 7.5631 2.3496
11/5/2020 7:30:00 PM 7.5644 2.4548
11/5/2020 7:45:00 PM 7.5754 2.4613
11/5/2020 8:00:00 PM 7.5778 2.5561
11/5/2020 8:15:00 PM 7.5554 2.7201
11/5/2020 8:30:00 PM 7.5725 2.7451
11/5/2020 8:45:00 PM 7.5796 2.7
11/5/2020 9:00:00 PM 7.5677 2.746
11/5/2020 9:15:00 PM 7.5763 2.7191
11/5/2020 9:30:00 PM 7.5785 2.7507
11/5/2020 9:45:00 PM 7.5761 2.7809
11/5/2020 10:00:00 PM 7.5651 2.8558
11/5/2020 10:15:00 PM 7.5551 2.9299
11/5/2020 10:30:00 PM 7.5569 3.0599
11/5/2020 10:45:00 PM 7.5622 3.4416
11/5/2020 11:00:00 PM 7.5568 3.0794
11/5/2020 11:15:00 PM 7.555 3.0422
11/5/2020 11:30:00 PM 7.5454 3.1181
11/5/2020 11:45:00 PM 7.5404 3.2
11/6/2020 12:00:00 AM 7.5378 3.1422
11/6/2020 12:15:00 AM 7.5377 3.0982
11/6/2020 12:30:00 AM 7.5331 3.1292
11/6/2020 12:45:00 AM 7.5191 3.2551
11/6/2020 1:00:00 AM 7.5103 3.2224
11/6/2020 1:15:00 AM 7.4952 3.2397
11/6/2020 1:30:00 AM 7.4881 3.2389
11/6/2020 1:45:00 AM 7.4872 3.2535
11/6/2020 2:00:00 AM 7.4733 3.2076
11/6/2020 2:15:00 AM 7.4623 3.1049
11/6/2020 2:30:00 AM 7.4507 3.0491
11/6/2020 2:45:00 AM 7.4424 3.0999
11/6/2020 3:00:00 AM 7.4471 2.95
11/6/2020 3:15:00 AM 7.4396 2.9004
11/6/2020 3:30:00 AM 7.4313 2.844
11/6/2020 3:45:00 AM 7.4214 2.8396
11/6/2020 4:00:00 AM 7.4157 2.784
11/6/2020 4:15:00 AM 7.424 2.7376
11/6/2020 4:30:00 AM 7.4132 2.7358
11/6/2020 4:45:00 AM 7.4068 2.7313
11/6/2020 5:00:00 AM 7.3976 2.7607
11/6/2020 5:15:00 AM 7.3904 2.8384
11/6/2020 5:30:00 AM 7.3251 2.8451
11/6/2020 5:45:00 AM 7.2982 2.8999
11/6/2020 6:00:00 AM 7.383 2.7263
11/6/2020 6:15:00 AM 7.3871 2.7492
11/6/2020 6:30:00 AM 7.3862 2.7582
11/6/2020 6:45:00 AM 7.3887 2.764
11/6/2020 7:00:00 AM 7.385 2.7372
11/6/2020 7:15:00 AM 7.3814 2.8007
11/6/2020 7:30:00 AM 7.3772 2.8279
11/6/2020 7:45:00 AM 7.3754 2.7993
11/6/2020 8:00:00 AM 7.3722 2.7248
11/6/2020 8:15:00 AM 7.3729 2.7381
11/6/2020 8:30:00 AM 7.3731 2.7503
11/6/2020 8:45:00 AM 7.3752 2.8
11/6/2020 9:00:00 AM 7.3748 2.7464
11/6/2020 9:15:00 AM 7.3775 2.7179
11/6/2020 9:30:00 AM 7.3778 2.7455
11/6/2020 9:45:00 AM 7.3774 2.7417
11/6/2020 10:00:00 AM 7.377 2.7613
11/6/2020 10:15:00 AM 7.3781 2.7239
11/6/2020 10:30:00 AM 7.3771 2.6577
11/6/2020 10:45:00 AM 7.3799 2.634
11/6/2020 11:00:00 AM 7.3824 2.6284
11/6/2020 11:15:00 AM 7.3871 2.6468
11/6/2020 11:30:00 AM 7.3873 2.6473
11/6/2020 11:45:00 AM 7.3892 2.6
11/6/2020 12:00:00 PM 7.3856 2.6268
11/6/2020 12:15:00 PM 7.4102 2.6638
11/6/2020 12:30:00 PM 7.6061 2.6579
11/6/2020 12:45:00 PM 7.8088 2.6579
11/6/2020 1:00:00 PM 7.8951 2.6508
11/6/2020 1:15:00 PM 7.9233 2.617
11/6/2020 1:30:00 PM 7.9316 2.6864
11/6/2020 1:45:00 PM 7.9386 2.782
11/6/2020 2:00:00 PM 7.9291 3.1528
11/6/2020 2:00:00 PM 9.7 49.46 0.243 2146 102 8
11/6/2020 2:15:00 PM 7.9235 3.3654
11/6/2020 2:30:00 PM 7.9256 3.3251
11/6/2020 2:30:00 PM 10.29 50.522 0.238 7.34 0.77 11.68
11/6/2020 2:45:00 PM 10.37 50.666 0.238 7.4 2.19 11.67
11/6/2020 2:45:00 PM 7.936 3.2384
11/6/2020 3:00:00 PM 7.9332 3.276
11/6/2020 3:00:00 PM 10.44 50.792 0.238 7.43 0.55 11.67
11/6/2020 3:15:00 PM 10.53 50.954 0.238 7.45 0.71 11.66
11/6/2020 3:15:00 PM 7.9316 3.121
11/6/2020 3:30:00 PM 7.93 3.0492
11/6/2020 3:30:00 PM 10.59 51.062 0.238 7.48 0.66 11.65
11/6/2020 3:45:00 PM 10.64 51.152 0.238 7.5 0.81 11.62
11/6/2020 3:45:00 PM 7.9324 2.9455
11/6/2020 4:00:00 PM 7.9315 2.9621
11/6/2020 4:00:00 PM 10.66 51.188 0.238 7.51 0.81 11.57
11/6/2020 4:15:00 PM 10.69 51.242 0.238 7.53 0.91 11.56
11/6/2020 4:15:00 PM 7.9255 3.0409
11/6/2020 4:30:00 PM 7.9233 3.0394
11/6/2020 4:30:00 PM 10.69 51.242 0.238 7.55 0.8 11.54
11/6/2020 4:45:00 PM 10.68 51.224 0.238 7.58 0.83 11.49
11/6/2020 4:45:00 PM 7.9226 3.0398
11/6/2020 5:00:00 PM 7.9169 3.0601
11/6/2020 5:00:00 PM 10.66 51.188 0.238 7.61 0.62 11.47
11/6/2020 5:15:00 PM 10.63 51.134 0.238 7.61 0.8 11.4
11/6/2020 5:15:00 PM 7.913 3.0284
11/6/2020 5:30:00 PM 7.9091 3.0539
11/6/2020 5:30:00 PM 10.57 51.026 0.238 7.63 1.22 11.36
11/6/2020 5:45:00 PM 10.54 50.972 0.238 7.66 0.66 11.3
11/6/2020 5:45:00 PM 7.903 3.0999
11/6/2020 6:00:00 PM 7.8982 3.1402
11/6/2020 6:00:00 PM 10.47 50.846 0.238 7.67 0.83 11.26
11/6/2020 6:15:00 PM 10.42 50.756 0.239 7.66 0.89 11.21
11/6/2020 6:15:00 PM 7.8943 3.2058
11/6/2020 6:30:00 PM 7.8925 3.3575
11/6/2020 6:30:00 PM 10.34 50.612 0.239 7.69 0.92 11.16
11/6/2020 6:45:00 PM 10.27 50.486 0.239 7.69 1.87 11.12
11/6/2020 6:45:00 PM 7.9569 3.3342
11/6/2020 7:00:00 PM 7.9762 3.3783
11/6/2020 7:00:00 PM 10.2 50.36 0.239 7.7 1.15 11.09
11/6/2020 7:15:00 PM 10.15 50.27 0.239 7.71 1.02 11.02
11/6/2020 7:15:00 PM 7.9727 3.3964
11/6/2020 7:30:00 PM 7.9645 3.4522
11/6/2020 7:30:00 PM 10.1 50.18 0.239 7.68 0.91 10.97
11/6/2020 7:45:00 PM 10.05 50.09 0.239 7.68 0.95 10.94
11/6/2020 7:45:00 PM 7.9589 3.5948
11/6/2020 8:00:00 PM 7.9536 3.6683
11/6/2020 8:00:00 PM 9.99 49.982 0.239 7.7 0.82 10.88
11/6/2020 8:15:00 PM 9.93 49.874 0.239 7.71 0.63 10.85
11/6/2020 8:15:00 PM 7.9223 3.9211
11/6/2020 8:30:00 PM 7.935 4.0398
11/6/2020 8:30:00 PM 9.88 49.784 0.239 7.73 0.89 10.83
11/6/2020 8:45:00 PM 9.84 49.712 0.239 7.71 1.26 10.78
11/6/2020 8:45:00 PM 7.9296 4.0998
11/6/2020 9:00:00 PM 7.9323 4.1851
11/6/2020 9:00:00 PM 9.8 49.64 0.239 7.7 1.04 10.74
11/6/2020 9:15:00 PM 9.76 49.568 0.239 7.7 1.05 10.7
11/6/2020 9:15:00 PM 7.9346 4.1643
11/6/2020 9:30:00 PM 7.9349 4.2482
11/6/2020 9:30:00 PM 9.73 49.514 0.239 7.7 1.45 10.69
11/6/2020 9:45:00 PM 9.69 49.442 0.239 7.76 1.38 10.68
11/6/2020 9:45:00 PM 7.9207 4.3207
11/6/2020 10:00:00 PM 7.9116 4.4824
11/6/2020 10:00:00 PM 9.66 49.388 0.24 7.74 1.05 10.66
11/6/2020 10:15:00 PM 9.63 49.334 0.24 7.74 1.67 10.59
11/6/2020 10:15:00 PM 7.8982 4.5394
11/6/2020 10:30:00 PM 7.8887 4.6292
11/6/2020 10:30:00 PM 9.6 49.28 0.24 7.7 1.45 10.61
11/6/2020 10:45:00 PM 9.57 49.226 0.24 7.72 1.56 10.58
11/6/2020 10:45:00 PM 7.8784 4.689
11/6/2020 11:00:00 PM 7.8661 4.7866
11/6/2020 11:00:00 PM 9.55 49.19 0.24 7.69 1.49 10.55
11/6/2020 11:15:00 PM 9.53 49.154 0.24 7.7 1.49 10.54
11/6/2020 11:15:00 PM 7.8639 4.8715
11/6/2020 11:30:00 PM 7.868 4.9627
11/6/2020 11:30:00 PM 9.51 49.118 0.24 7.69 1.55 10.56
11/6/2020 11:45:00 PM 9.49 49.082 0.257 7.65 2.1 10.51
11/6/2020 11:45:00 PM 7.8568 4.9999
11/7/2020 12:00:00 AM 7.8528 5.1919
11/7/2020 12:00:00 AM 9.46 49.028 0.241 7.65 1.85 10.51
11/7/2020 12:15:00 AM 9.45 49.01 0.24 7.63 2.05 10.51
11/7/2020 12:15:00 AM 7.8397 5.3371
11/7/2020 12:30:00 AM 7.8294 5.3372
11/7/2020 12:30:00 AM 9.42 48.956 0.24 7.62 1.82 10.51
11/7/2020 12:45:00 AM 9.4 48.92 0.24 7.62 1.46 10.49
11/7/2020 12:45:00 AM 7.8172 5.3787
11/7/2020 1:00:00 AM 7.8185 5.4818
11/7/2020 1:00:00 AM 9.38 48.884 0.249 7.62 1.45 10.46
11/7/2020 1:15:00 AM 9.36 48.848 0.241 7.63 2.09 10.49
11/7/2020 1:15:00 AM 7.8139 5.5501
11/7/2020 1:30:00 AM 7.8092 5.6206
11/7/2020 1:30:00 AM 9.33 48.794 0.242 7.63 1.91 10.46
11/7/2020 1:45:00 AM 9.29 48.722 0.242 7.63 1.8 10.44
11/7/2020 1:45:00 AM 7.7893 5.642
11/7/2020 2:00:00 AM 7.763 5.6514
11/7/2020 2:00:00 AM 9.27 48.686 0.251 7.63 2.17 10.43
11/7/2020 2:15:00 AM 9.24 48.632 0.259 7.63 1.44 10.46
11/7/2020 2:15:00 AM 7.7564 5.6286
11/7/2020 2:30:00 AM 7.7451 5.6709
11/7/2020 2:30:00 AM 9.19 48.542 0.248 7.64 12 10.4
11/7/2020 2:45:00 AM 9.16 48.488 0.241 7.63 2 10.4
11/7/2020 2:45:00 AM 7.7378 5.7001
11/7/2020 3:00:00 AM 7.7297 5.691
11/7/2020 3:00:00 AM 9.13 48.434 0.242 7.62 2.32 10.39
11/7/2020 3:15:00 AM 9.1 48.38 0.242 7.61 1.5 10.39
11/7/2020 3:15:00 AM 7.721 5.7405
11/7/2020 3:30:00 AM 7.7081 5.9041
11/7/2020 3:30:00 AM 9.05 48.29 0.241 7.6 1.95 10.36
11/7/2020 3:45:00 AM 9.02 48.236 0.242 7.61 2.36 10.36
11/7/2020 3:45:00 AM 7.6987 5.9091
11/7/2020 4:00:00 AM 7.686 5.8765
11/7/2020 4:00:00 AM 8.98 48.164 0.242 7.6 1.93 10.38
11/7/2020 4:15:00 AM 8.94 48.092 0.241 7.61 1.35 10.38
11/7/2020 4:15:00 AM 7.6893 5.9404
11/7/2020 4:30:00 AM 7.6798 5.9503
11/7/2020 4:30:00 AM 8.9 48.02 0.242 7.61 1.49 10.34
11/7/2020 4:45:00 AM 8.86 47.948 0.242 7.62 1.31 10.35
11/7/2020 4:45:00 AM 7.6613 6.0417
11/7/2020 5:00:00 AM 7.6637 6.0663
11/7/2020 5:00:00 AM 8.83 47.894 0.242 7.61 1.33 10.35
11/7/2020 5:15:00 AM 8.79 47.822 0.242 7.61 1.44 10.36
11/7/2020 5:15:00 AM 7.6548 6.0714
11/7/2020 5:30:00 AM 7.6469 6.1081
11/7/2020 5:30:00 AM 8.74 47.732 0.242 7.61 1.65 10.33
11/7/2020 5:45:00 AM 8.71 47.678 0.242 7.62 1.78 10.34
11/7/2020 5:45:00 AM 7.6398 6.1001
11/7/2020 6:00:00 AM 7.6152 6.1381
11/7/2020 6:00:00 AM 8.66 47.588 0.242 7.61 1.71 10.31
11/7/2020 6:15:00 AM 8.62 47.516 0.242 7.6 2.06 10.3
11/7/2020 6:15:00 AM 7.629 6.1371
11/7/2020 6:30:00 AM 7.6272 6.2534
11/7/2020 6:30:00 AM 8.59 47.462 0.242 7.61 1.82 10.32
11/7/2020 6:45:00 AM 8.55 47.39 0.242 7.6 1.77 10.3
11/7/2020 6:45:00 AM 7.6212 6.234
11/7/2020 7:00:00 AM 7.601 6.2633
11/7/2020 7:00:00 AM 8.52 47.336 0.242 7.6 1.42 10.3
11/7/2020 7:15:00 AM 8.48 47.264 0.242 7.6 1.58 10.32
11/7/2020 7:15:00 AM 7.5105 6.2796
11/7/2020 7:30:00 AM 7.4264 6.2539
11/7/2020 7:30:00 AM 8.46 47.228 0.242 7.6 1.61 10.33
11/7/2020 7:45:00 AM 8.44 47.192 0.243 7.58 1.28 10.35
11/7/2020 7:45:00 AM 7.4201 6.2325
11/7/2020 8:00:00 AM 7.4132 6.2463
11/7/2020 8:00:00 AM 8.43 47.174 0.243 7.58 1.94 10.39
11/7/2020 8:15:00 AM 8.42 47.156 0.243 7.57 1.45 10.42
11/7/2020 8:15:00 AM 7.4056 6.2518
11/7/2020 8:30:00 AM 7.3989 6.2663
11/7/2020 8:30:00 AM 8.42 47.156 0.243 7.56 1.81 10.47
11/7/2020 8:45:00 AM 8.46 47.228 0.243 7.54 1.89 10.52
11/7/2020 8:45:00 AM 7.399 6.2001
11/7/2020 9:00:00 AM 7.3824 6.1282
11/7/2020 9:00:00 AM 8.52 47.336 0.243 7.55 1.74 10.57
11/7/2020 9:15:00 AM 8.59 47.462 0.243 7.52 1.72 10.62
11/7/2020 9:15:00 AM 7.3766 6.1206
11/7/2020 9:30:00 AM 7.369 7.2137
11/7/2020 9:30:00 AM 8.69 47.642 0.243 7.48 1.78 10.7
11/7/2020 9:45:00 AM 8.78 47.804 0.243 7.47 1.54 10.77
11/7/2020 9:45:00 AM 7.3676 6.573
11/7/2020 10:00:00 AM 7.3639 6.5332
11/7/2020 10:00:00 AM 8.92 48.056 0.243 7.45 1.64 10.85
11/7/2020 10:15:00 AM 9 48.2 0.243 7.43 1.7 10.9
11/7/2020 10:15:00 AM 7.3577 6.5532
11/7/2020 10:30:00 AM 7.3535 6.5439
11/7/2020 10:30:00 AM 9.12 48.416 0.243 7.43 1.46 10.95
11/7/2020 10:45:00 AM 9.22 48.596 0.243 7.4 1.87 11.04
11/7/2020 10:45:00 AM 7.3523 6.5504
11/7/2020 11:00:00 AM 7.3523 6.5313
11/7/2020 11:00:00 AM 9.32 48.776 0.243 7.39 1.57 11.1
11/7/2020 11:15:00 AM 9.44 48.992 0.242 7.4 1.41 11.14
11/7/2020 11:15:00 AM 7.3524 6.5305
11/7/2020 11:30:00 AM 7.3525 6.5267
11/7/2020 11:30:00 AM 9.55 49.19 0.243 7.41 1.39 11.19
11/7/2020 11:45:00 AM 9.66 49.388 0.243 7.42 1.56 11.27
11/7/2020 11:45:00 AM 7.3542 6.5999
11/7/2020 12:00:00 PM 7.3589 6.5625
11/7/2020 12:00:00 PM 9.78 49.604 0.242 7.43 1.47 11.32
11/7/2020 12:15:00 PM 9.87 49.766 0.242 7.43 1.35 11.39
11/7/2020 12:15:00 PM 7.3641 6.5682
11/7/2020 12:30:00 PM 7.3668 6.8586
11/7/2020 12:30:00 PM 10 50 0.242 7.44 1.41 11.44
11/7/2020 12:45:00 PM 10.13 50.234 0.242 7.46 2.17 11.49
11/7/2020 12:45:00 PM 7.3689 6.8634
11/7/2020 1:00:00 PM 7.3723 6.8427
11/7/2020 1:00:00 PM 10.2 50.36 0.242 7.45 1.68 11.55
11/7/2020 1:15:00 PM 10.31 50.558 0.242 7.44 1.75 11.61
11/7/2020 1:15:00 PM 7.3722 6.8228
11/7/2020 1:30:00 PM 7.3734 6.8589
11/7/2020 1:30:00 PM 10.39 50.702 0.242 7.47 2.36 11.67
11/7/2020 1:45:00 PM 10.48 50.864 0.242 7.47 2.03 11.73
11/7/2020 1:45:00 PM 7.3709 10.3213
11/7/2020 2:00:00 PM 7.3823 1.7459
11/7/2020 2:00:00 PM 10.55 50.99 0.242 7.47 1.61 11.7
11/7/2020 2:15:00 PM 10.64 51.152 0.242 7.46 1.63 11.73
11/7/2020 2:15:00 PM 7.3987 1.6501
11/7/2020 2:30:00 PM 7.4051 1.5613
11/7/2020 2:30:00 PM 10.7 51.26 0.242 7.48 1.68 11.77
11/7/2020 2:45:00 PM 10.78 51.404 0.242 7.49 1.97 11.75
11/7/2020 2:45:00 PM 7.412 1.4722
11/7/2020 3:00:00 PM 7.4135 1.4192
11/7/2020 3:00:00 PM 10.84 51.512 0.242 7.5 1.56 11.76
11/7/2020 3:15:00 PM 10.92 51.656 0.242 7.5 1.97 11.74
11/7/2020 3:15:00 PM 7.4149 1.3824
11/7/2020 3:30:00 PM 7.4163 1.378
11/7/2020 3:30:00 PM 10.97 51.746 0.242 7.49 1.37 11.74
11/7/2020 3:45:00 PM 11.02 51.836 0.242 7.51 1.47 11.72
11/7/2020 3:45:00 PM 7.4296 1.3012
11/7/2020 4:00:00 PM 7.4391 1.2235
11/7/2020 4:00:00 PM 11.05 51.89 0.242 7.55 2.13 11.68
11/7/2020 4:15:00 PM 11.08 51.944 0.242 7.55 1.51 11.64
11/7/2020 4:15:00 PM 7.4526 1.1734
11/7/2020 4:30:00 PM 7.4646 1.1504
11/7/2020 4:30:00 PM 11.09 51.962 0.243 7.56 4.24 11.61
11/7/2020 4:45:00 PM 11.09 51.962 0.243 7.56 1.34 11.59
11/7/2020 4:45:00 PM 7.4766 1.2168
11/7/2020 5:00:00 PM 7.4852 1.2429
11/7/2020 5:00:00 PM 11.08 51.944 0.243 7.57 1.25 11.53
11/7/2020 5:15:00 PM 11.06 51.908 0.243 7.58 0.42 11.47
11/7/2020 5:15:00 PM 7.4899 1.2823
11/7/2020 5:30:00 PM 7.4966 1.3526
11/7/2020 5:30:00 PM 11.02 51.836 0.243 7.57 1.19 11.4
11/7/2020 5:45:00 PM 10.96 51.728 0.243 7.58 2.3 11.36
11/7/2020 5:45:00 PM 7.4942 1.3999
11/7/2020 6:00:00 PM 7.5061 1.5715
11/7/2020 6:00:00 PM 10.92 51.656 0.243 7.6 1.42 11.31
11/7/2020 6:15:00 PM 10.86 51.548 0.243 7.61 1.65 11.21
11/7/2020 6:15:00 PM 7.5144 1.6727
11/7/2020 6:30:00 PM 7.5206 1.7775
11/7/2020 6:30:00 PM 10.77 51.386 0.243 7.62 1.76 11.19
11/7/2020 6:45:00 PM 10.73 51.314 0.243 7.63 2.04 11.1
11/7/2020 6:45:00 PM 7.5206 1.8225
11/7/2020 7:00:00 PM 7.5237 1.9085
11/7/2020 7:00:00 PM 10.65 51.17 0.243 7.63 1.35 11.06
11/7/2020 7:15:00 PM 10.59 51.062 0.243 7.65 1.63 11
11/7/2020 7:15:00 PM 7.5292 1.9453
11/7/2020 7:30:00 PM 7.5355 1.9513
11/7/2020 7:30:00 PM 10.52 50.936 0.243 7.64 1.53 10.94
11/7/2020 7:45:00 PM 10.46 50.828 0.243 7.67 2.38 10.88
11/7/2020 7:45:00 PM 7.5385 2.0152
11/7/2020 8:00:00 PM 7.5178 2.148
11/7/2020 8:00:00 PM 10.41 50.738 0.243 7.65 1.43 10.84
11/7/2020 8:15:00 PM 10.33 50.594 0.244 7.67 2.04 10.81
11/7/2020 8:15:00 PM 7.5438 2.2454
11/7/2020 8:30:00 PM 7.5564 2.26
11/7/2020 8:30:00 PM 10.28 50.504 0.244 7.66 1.54 10.74
11/7/2020 8:45:00 PM 10.23 50.414 0.244 7.66 1.17 10.72
11/7/2020 8:45:00 PM 7.5558 2.3
11/7/2020 9:00:00 PM 7.5555 2.227
11/7/2020 9:00:00 PM 10.17 50.306 0.244 7.67 1.87 10.67
11/7/2020 9:15:00 PM 10.13 50.234 0.244 7.67 1.79 10.65
11/7/2020 9:15:00 PM 7.5733 2.2514
11/7/2020 9:30:00 PM 7.5996 2.2517
11/7/2020 9:30:00 PM 10.07 50.126 0.244 7.66 1.73 10.62
11/7/2020 9:45:00 PM 10.01 50.018 0.244 7.66 2.11 10.56
11/7/2020 9:45:00 PM 7.588 2.3225
11/7/2020 10:00:00 PM 7.5785 2.3812
11/7/2020 10:00:00 PM 9.97 49.946 0.244 7.65 1.5 10.57
11/7/2020 10:15:00 PM 9.93 49.874 0.244 7.65 2.05 10.51
11/7/2020 10:15:00 PM 7.5683 2.4838
11/7/2020 10:30:00 PM 7.5785 2.3207
11/7/2020 10:30:00 PM 9.89 49.802 0.244 7.65 2.34 10.53
11/7/2020 10:45:00 PM 9.85 49.73 0.244 7.63 2.35 10.47
11/7/2020 10:45:00 PM 7.586 2.2383
11/7/2020 11:00:00 PM 7.5924 2.2972
11/7/2020 11:00:00 PM 9.82 49.676 0.244 7.62 2.04 10.47
11/7/2020 11:15:00 PM 9.79 49.622 0.247 7.62 2.39 10.45
11/7/2020 11:15:00 PM 7.587 2.3863
11/7/2020 11:30:00 PM 7.5648 2.3844
11/7/2020 11:30:00 PM 9.75 49.55 0.244 7.62 1.71 10.41
11/7/2020 11:45:00 PM 9.71 49.478 0.245 7.63 2.08 10.42
11/7/2020 11:45:00 PM 7.567 2.3001
11/8/2020 12:00:00 AM 7.5695 2.3427
11/8/2020 12:00:00 AM 9.68 49.424 0.245 7.62 2.29 10.43
11/8/2020 12:15:00 AM 9.65 49.37 0.245 7.63 2.29 10.38
11/8/2020 12:15:00 AM 7.5621 2.3349
11/8/2020 12:30:00 AM 7.5615 2.3983
11/8/2020 12:30:00 AM 9.63 49.334 0.245 7.63 3.13 10.4
11/8/2020 12:45:00 AM 9.61 49.298 0.245 7.63 2.17 10.39
11/8/2020 12:45:00 AM 7.5527 2.4398
11/8/2020 1:00:00 AM 7.5436 2.4459
11/8/2020 1:00:00 AM 9.58 49.244 0.245 7.63 2.14 10.38
11/8/2020 1:15:00 AM 9.56 49.208 0.244 7.62 2.82 10.39
11/8/2020 1:15:00 AM 7.5333 2.4389
11/8/2020 1:30:00 AM 7.5233 2.4619
11/8/2020 1:30:00 AM 9.53 49.154 0.245 7.62 0.86 10.39
11/8/2020 1:45:00 AM 9.49 49.082 0.245 7.62 1.82 10.35
11/8/2020 1:45:00 AM 7.5141 2.4368
11/8/2020 2:00:00 AM 7.4979 2.4866
11/8/2020 2:00:00 AM 9.45 49.01 0.245 7.62 1.38 10.33
11/8/2020 2:15:00 AM 9.43 48.974 0.245 7.61 2.11 10.34
11/8/2020 2:15:00 AM 7.4823 2.8114
11/8/2020 2:30:00 AM 7.469 2.6977
11/8/2020 2:30:00 AM 9.39 48.902 0.245 7.59 2.22 10.33
11/8/2020 2:45:00 AM 9.37 48.866 0.247 7.59 3.91 10.34
11/8/2020 2:45:00 AM 7.4578 2.6
11/8/2020 3:00:00 AM 7.4567 2.3373
11/8/2020 3:00:00 AM 9.33 48.794 0.246 7.57 2.04 10.3
11/8/2020 3:15:00 AM 9.3 48.74 0.246 7.56 2.41 10.32
11/8/2020 3:15:00 AM 7.4488 2.276
11/8/2020 3:30:00 AM 7.4307 2.2393
11/8/2020 3:30:00 AM 9.26 48.668 0.246 7.55 1.98 10.3
11/8/2020 3:45:00 AM 9.21 48.578 0.246 7.54 2.22 10.27
11/8/2020 3:45:00 AM 7.322 2.2844
11/8/2020 4:00:00 AM 7.3798 2.1588
11/8/2020 4:00:00 AM 9.19 48.542 0.246 7.54 2.42 10.29
11/8/2020 4:15:00 AM 9.14 48.452 0.246 7.46 3.96 10.28
11/8/2020 4:15:00 AM 7.3955 2.1286
11/8/2020 4:30:00 AM 7.3883 2.1984
11/8/2020 4:30:00 AM 9.1 48.38 0.246 7.5 3.06 10.33
11/8/2020 4:45:00 AM 9.05 48.29 0.246 7.51 2.3 10.29
11/8/2020 4:45:00 AM 7.3802 2.1548
11/8/2020 5:00:00 AM 7.3759 2.0851
11/8/2020 5:00:00 AM 9 48.2 0.247 7.48 2.69 10.26
11/8/2020 5:15:00 AM 8.97 48.146 0.246 7.48 2.58 10.26
11/8/2020 5:15:00 AM 7.3721 2.056
11/8/2020 5:30:00 AM 7.3677 2.0463
11/8/2020 5:30:00 AM 8.93 48.074 0.247 7.51 1.84 10.28
11/8/2020 5:45:00 AM 8.9 48.02 0.247 7.51 2.62 10.25
11/8/2020 5:45:00 AM 7.364 2.0002
11/8/2020 6:00:00 AM 7.3573 2.0454
11/8/2020 6:00:00 AM 8.84 47.912 0.247 7.51 2.12 10.25
11/8/2020 6:15:00 AM 8.8 47.84 0.247 7.53 2.35 10.23
11/8/2020 6:15:00 AM 7.3527 2.0114
11/8/2020 6:30:00 AM 7.3479 1.9976
11/8/2020 6:30:00 AM 8.74 47.732 0.247 7.54 1.58 10.23
11/8/2020 6:45:00 AM 8.72 47.696 0.247 7.53 1.54 10.24
11/8/2020 6:45:00 AM 7.3419 1.9532
11/8/2020 7:00:00 AM 7.3384 1.938
11/8/2020 7:00:00 AM 8.69 47.642 0.247 7.54 1.63 10.24
11/8/2020 7:15:00 AM 8.64 47.552 0.247 7.55 1.5 10.25
11/8/2020 7:15:00 AM 7.3311 1.9578
11/8/2020 7:30:00 AM 7.3226 2.0081
11/8/2020 7:30:00 AM 8.61 47.498 0.247 7.55 1.36 10.29
11/8/2020 7:45:00 AM 8.59 47.462 0.247 7.56 1.57 10.31
11/8/2020 7:45:00 AM 7.317 6.9952
11/8/2020 8:00:00 AM 7.3141 1.5757
11/8/2020 8:00:00 AM 8.57 47.426 0.247 7.78 1.55 10.33
11/8/2020 8:15:00 AM 8.56 47.408 0.247 7.82 1.41 10.37
11/8/2020 8:15:00 AM 7.3128 1.5932
11/8/2020 8:30:00 AM 7.3119 1.5579
11/8/2020 8:30:00 AM 8.56 47.408 0.247 7.79 1.34 10.41
11/8/2020 8:45:00 AM 8.59 47.462 0.247 7.75 1.77 10.45
11/8/2020 8:45:00 AM 7.3108 1.6001
11/8/2020 9:00:00 AM 7.3125 1.5861
11/8/2020 9:00:00 AM 8.66 47.588 0.247 7.74 1.49 10.55
11/8/2020 9:15:00 AM 8.73 47.714 0.247 7.62 1.35 10.65
11/8/2020 9:15:00 AM 7.3142 1.6582
11/8/2020 9:30:00 AM 7.3184 1.6539
11/8/2020 9:30:00 AM 8.82 47.876 0.247 7.53 1.63 10.72
11/8/2020 9:45:00 AM 8.94 48.092 0.247 7.46 1.05 10.8
11/8/2020 9:45:00 AM 7.3176 1.6243
11/8/2020 10:00:00 AM 7.3155 1.5812
11/8/2020 10:00:00 AM 9.05 48.29 0.247 7.43 1 10.9
11/8/2020 10:15:00 AM 9.14 48.452 0.247 7.41 1.01 10.94
11/8/2020 10:15:00 AM 7.3244 1.8027
11/8/2020 10:30:00 AM 7.3653 1.9939
11/8/2020 10:30:00 AM 9.27 48.686 0.247 7.4 1.11 11.01
11/8/2020 10:45:00 AM 9.4 48.92 0.247 7.42 1.2 11.08
11/8/2020 10:45:00 AM 7.4387 2.106
11/8/2020 11:00:00 AM 7.4932 2.1413
11/8/2020 11:00:00 AM 9.48 49.064 0.247 7.45 1.2 11.14
11/8/2020 11:15:00 AM 9.57 49.226 0.247 7.46 1.18 11.19
11/8/2020 11:15:00 AM 7.6222 2.2228
11/8/2020 11:30:00 AM 7.6938 2.2559
11/8/2020 11:30:00 AM 9.69 49.442 0.247 7.48 1.1 11.26
11/8/2020 11:45:00 AM 9.81 49.658 0.247 7.47 0.94 11.35
11/8/2020 11:45:00 AM 7.7294 2.3
11/8/2020 12:00:00 PM 7.783 2.3115
11/8/2020 12:00:00 PM 9.88 49.784 0.247 7.49 1.3 11.41
11/8/2020 12:15:00 PM 10.01 50.018 0.247 7.51 1 11.48
11/8/2020 12:15:00 PM 7.7911 2.3458
11/8/2020 12:30:00 PM 7.8073 2.3271
11/8/2020 12:30:00 PM 10.1 50.18 0.247 7.55 1.11 11.56
11/8/2020 12:45:00 PM 10.24 50.432 0.247 7.56 1.16 11.63
11/8/2020 12:45:00 PM 7.8088 2.3386
11/8/2020 1:00:00 PM 7.8178 2.3238
11/8/2020 1:00:00 PM 10.31 50.558 0.247 7.57 1 11.7
11/8/2020 1:15:00 PM 10.43 50.774 0.247 7.61 1.02 11.72
11/8/2020 1:15:00 PM 7.7864 2.6325
11/8/2020 1:30:00 PM 7.5721 2.6289
11/8/2020 1:30:00 PM 10.51 50.918 0.247 7.62 1.31 11.79
11/8/2020 1:45:00 PM 10.58 51.044 0.247 7.65 1.2 11.86
11/8/2020 1:45:00 PM 7.4448 2.4956
11/8/2020 2:00:00 PM 7.3922 2.4344
11/8/2020 2:00:00 PM 10.62 51.116 0.247 7.68 1.33 11.88
11/8/2020 2:15:00 PM 10.7 51.26 0.247 7.67 1.05 11.92
11/8/2020 2:15:00 PM 7.3807 2.3993
11/8/2020 2:30:00 PM 7.3769 2.3692
11/8/2020 2:30:00 PM 10.79 51.422 0.247 7.63 1.3 11.93
11/8/2020 2:45:00 PM 10.86 51.548 0.247 7.63 1.22 11.96
11/8/2020 2:45:00 PM 7.3817 2.357
11/8/2020 3:00:00 PM 7.3886 2.4324
11/8/2020 3:00:00 PM 10.91 51.638 0.247 7.65 1.2 11.96
11/8/2020 3:15:00 PM 10.98 51.764 0.247 7.65 1.11 11.98
11/8/2020 3:15:00 PM 7.3933 2.4344
11/8/2020 3:30:00 PM 7.4003 2.4468
11/8/2020 3:30:00 PM 11.04 51.872 0.247 7.64 1.24 11.97
11/8/2020 3:45:00 PM 11.09 51.962 0.247 7.65 1.07 11.96
11/8/2020 3:45:00 PM 7.4126 2.4382
11/8/2020 4:00:00 PM 7.4407 2.4343
11/8/2020 4:00:00 PM 11.14 52.052 0.247 7.65 1.02 11.92
11/8/2020 4:15:00 PM 11.17 52.106 0.247 7.65 1.42 11.89
11/8/2020 4:15:00 PM 7.4592 2.4654
11/8/2020 4:30:00 PM 7.4584 2.4426
11/8/2020 4:30:00 PM 11.19 52.142 0.247 7.64 0.98 11.85
11/8/2020 4:45:00 PM 11.2 52.16 0.247 7.65 1.1 11.79
11/8/2020 4:45:00 PM 7.4625 2.4528
11/8/2020 5:00:00 PM 7.4763 2.4289
11/8/2020 5:00:00 PM 11.21 52.178 0.247 7.66 1.14 11.76
11/8/2020 5:15:00 PM 11.19 52.142 0.247 7.68 0.99 11.69
11/8/2020 5:15:00 PM 7.4852 2.3514
11/8/2020 5:30:00 PM 7.4933 2.3562
11/8/2020 5:30:00 PM 11.16 52.088 0.248 7.66 1.09 11.63
11/8/2020 5:45:00 PM 11.12 52.016 0.248 7.68 1.24 11.57
11/8/2020 5:45:00 PM 7.4984 2.4001
11/8/2020 6:00:00 PM 7.5018 2.4446
11/8/2020 6:00:00 PM 11.08 51.944 0.27 7.68 1.35 11.5
11/8/2020 6:15:00 PM 11 51.8 0.248 7.69 0.79 11.43
11/8/2020 6:15:00 PM 7.5149 2.4409
11/8/2020 6:30:00 PM 7.5346 2.4485
11/8/2020 6:30:00 PM 10.95 51.71 0.265 7.59 1.1 11.37
11/8/2020 6:45:00 PM 10.88 51.584 0.248 7.59 1.42 11.31
11/8/2020 6:45:00 PM 7.5506 2.5214
11/8/2020 7:00:00 PM 7.5581 2.5518
11/8/2020 7:00:00 PM 10.81 51.458 0.248 7.58 1.52 11.25
11/8/2020 7:15:00 PM 10.75 51.35 0.256 7.61 1.52 11.17
11/8/2020 7:15:00 PM 7.5683 2.5559
11/8/2020 7:30:00 PM 7.5918 2.5192
11/8/2020 7:30:00 PM 10.69 51.242 0.265 7.6 1.21 11.12
11/8/2020 7:45:00 PM 10.61 51.098 0.249 7.59 1.27 11.06
11/8/2020 7:45:00 PM 7.6065 2.5687
11/8/2020 8:00:00 PM 7.5712 2.7788
11/8/2020 8:00:00 PM 10.54 50.972 0.249 7.6 0.96 10.98
11/8/2020 8:15:00 PM 10.48 50.864 0.264 7.61 1.46 10.94
11/8/2020 8:15:00 PM 7.6256 2.8465
11/8/2020 8:30:00 PM 7.6408 2.8136
11/8/2020 8:30:00 PM 10.42 50.756 0.249 7.6 1.83 10.89
11/8/2020 8:45:00 PM 10.36 50.648 0.249 7.59 1.7 10.84
11/8/2020 8:45:00 PM 7.644 2.7999
11/8/2020 9:00:00 PM 7.6575 2.7816
11/8/2020 9:00:00 PM 10.31 50.558 0.249 7.6 2.14 10.78
11/8/2020 9:15:00 PM 10.25 50.45 0.249 7.59 1.89 10.73
11/8/2020 9:15:00 PM 7.6627 2.7256
11/8/2020 9:30:00 PM 7.6829 2.7297
11/8/2020 9:30:00 PM 10.2 50.36 0.249 7.59 1.59 10.7
11/8/2020 9:45:00 PM 10.15 50.27 0.249 7.59 1.41 10.63
11/8/2020 9:45:00 PM 7.7138 2.759
11/8/2020 10:00:00 PM 7.7095 2.7497
11/8/2020 10:00:00 PM 10.09 50.162 0.249 7.58 1.87 10.62
11/8/2020 10:15:00 PM 10.05 50.09 0.249 7.57 1.74 10.57
11/8/2020 10:15:00 PM 7.6828 2.7491
11/8/2020 10:30:00 PM 7.6963 2.6601
11/8/2020 10:30:00 PM 10.01 50.018 0.249 7.55 1.38 10.56
11/8/2020 10:45:00 PM 9.97 49.946 0.249 7.54 1.65 10.52
11/8/2020 10:45:00 PM 7.7005 2.7501
11/8/2020 11:00:00 PM 7.6914 2.7568
11/8/2020 11:00:00 PM 9.92 49.856 0.249 7.54 1.9 10.52
11/8/2020 11:15:00 PM 9.89 49.802 0.249 7.54 1.28 10.48
11/8/2020 11:15:00 PM 7.6669 2.8416
11/8/2020 11:30:00 PM 7.6551 2.761
11/8/2020 11:30:00 PM 9.85 49.73 0.249 7.53 2.24 10.45
11/8/2020 11:45:00 PM 9.83 49.694 0.249 7.52 1.51 10.44
11/8/2020 11:45:00 PM 7.6636 2.7005
11/9/2020 12:00:00 AM 7.6707 2.6473
11/9/2020 12:00:00 AM 9.8 49.64 0.249 7.53 1.5 10.46
11/9/2020 12:15:00 AM 9.76 49.568 0.249 7.53 1.22 10.42
11/9/2020 12:15:00 AM 7.6692 2.6378
11/9/2020 12:30:00 AM 7.6687 2.6375
11/9/2020 12:30:00 AM 9.73 49.514 0.249 7.53 1.41 10.44
11/9/2020 12:45:00 AM 9.73 49.514 0.249 7.52 1.83 10.39
11/9/2020 12:45:00 AM 7.6587 2.6754
11/9/2020 1:00:00 AM 7.6521 2.7738
11/9/2020 1:00:00 AM 9.69 49.442 0.249 7.53 1.58 10.39
11/9/2020 1:15:00 AM 9.66 49.388 0.25 7.53 1.42 10.41
11/9/2020 1:15:00 AM 7.6422 2.8346
11/9/2020 1:30:00 AM 7.6293 2.7337
11/9/2020 1:30:00 AM 9.65 49.37 0.246 7.51 1.41 10.37
11/9/2020 1:45:00 AM 9.61 49.298 0.249 7.51 1.43 10.35
11/9/2020 1:45:00 AM 7.6209 2.6718
11/9/2020 2:00:00 AM 7.6072 2.6684
11/9/2020 2:00:00 AM 9.59 49.262 0.249 7.51 1.49 10.35
11/9/2020 2:15:00 AM 9.56 49.208 0.25 7.51 1.71 10.34
11/9/2020 2:15:00 AM 7.5877 2.6814
11/9/2020 2:30:00 AM 7.5721 2.7473
11/9/2020 2:30:00 AM 9.54 49.172 0.25 7.51 1.53 10.32
11/9/2020 2:45:00 AM 9.51 49.118 0.25 7.5 1.31 10.32
11/9/2020 2:45:00 AM 7.5698 2.7001
11/9/2020 3:00:00 AM 7.5435 2.6743
11/9/2020 3:00:00 AM 9.5 49.1 0.25 7.51 1.71 10.32
11/9/2020 3:15:00 AM 9.46 49.028 0.25 7.51 1.6 10.31
11/9/2020 3:15:00 AM 7.5285 2.6403
11/9/2020 3:30:00 AM 7.5146 2.5493
11/9/2020 3:30:00 AM 9.42 48.956 0.25 7.5 1.35 10.29
11/9/2020 3:45:00 AM 9.39 48.902 0.25 7.51 1.21 10.29
11/9/2020 3:45:00 AM 7.4298 2.5621
11/9/2020 4:00:00 AM 7.3946 2.4419
11/9/2020 4:00:00 AM 9.37 48.866 0.25 7.5 2.81 10.28
11/9/2020 4:15:00 AM 9.34 48.812 0.251 7.5 1.16 10.29
11/9/2020 4:15:00 AM 7.4649 2.397
11/9/2020 4:30:00 AM 7.4775 2.3447
11/9/2020 4:30:00 AM 9.31 48.758 0.251 7.5 1.25 10.26
11/9/2020 4:45:00 AM 9.28 48.704 0.251 7.49 1.26 10.24
11/9/2020 4:45:00 AM 7.4654 2.2721
11/9/2020 5:00:00 AM 7.4527 2.2457
11/9/2020 5:00:00 AM 9.26 48.668 0.251 7.49 1.18 10.25
11/9/2020 5:15:00 AM 9.22 48.596 0.251 7.49 1.49 10.26
11/9/2020 5:15:00 AM 7.4394 2.2554
11/9/2020 5:30:00 AM 7.4296 2.2681
11/9/2020 5:30:00 AM 9.18 48.524 0.251 7.49 1.3 10.24
11/9/2020 5:45:00 AM 9.14 48.452 0.251 7.48 1.3 10.21
11/9/2020 5:45:00 AM 7.427 2.2005
11/9/2020 6:00:00 AM 7.4317 2.2429
11/9/2020 6:00:00 AM 9.1 48.38 0.251 7.48 1.1 10.2
11/9/2020 6:15:00 AM 9.07 48.326 0.251 7.48 1.48 10.19
11/9/2020 6:15:00 AM 7.4121 2.2623
11/9/2020 6:30:00 AM 7.3892 2.26
11/9/2020 6:30:00 AM 9.03 48.254 0.251 7.47 1.53 10.22
11/9/2020 6:45:00 AM 9.01 48.218 0.251 7.47 1.2 10.21
11/9/2020 6:45:00 AM 7.3732 2.262
11/9/2020 7:00:00 AM 7.3631 2.2545
11/9/2020 7:00:00 AM 8.97 48.146 0.251 7.47 1.15 10.2
11/9/2020 7:15:00 AM 8.94 48.092 0.251 7.47 1.24 10.22
11/9/2020 7:15:00 AM 7.359 2.1822
11/9/2020 7:30:00 AM 7.3544 2.2381
11/9/2020 7:30:00 AM 8.92 48.056 0.251 7.47 1.18 10.23
11/9/2020 7:45:00 AM 8.91 48.038 0.251 7.48 1.32 10.28
11/9/2020 7:45:00 AM 7.3518 2.1834
11/9/2020 8:00:00 AM 7.3478 2.1748
11/9/2020 8:00:00 AM 8.89 48.002 0.251 7.47 1.36 10.28
11/9/2020 8:15:00 AM 8.88 47.984 0.251 7.46 1.68 10.34
11/9/2020 8:15:00 AM 7.3453 2.1308
11/9/2020 8:30:00 AM 7.3436 2.0921
11/9/2020 8:30:00 AM 8.9 48.02 0.251 7.46 1.88 10.39
11/9/2020 8:45:00 AM 8.93 48.074 0.251 7.45 2.7 10.47
11/9/2020 8:45:00 AM 7.3402 2.1
11/9/2020 9:00:00 AM 7.3432 2.1502
11/9/2020 9:00:00 AM 8.99 48.182 0.251 7.43 1.18 10.57
11/9/2020 9:15:00 AM 9.08 48.344 0.251 7.41 2.67 10.67
11/9/2020 9:15:00 AM 7.347 2.2174
11/9/2020 9:30:00 AM 7.3399 3.2713
11/9/2020 9:30:00 AM 9.18 48.524 0.251 7.41 2.69 10.76
11/9/2020 9:45:00 AM 9.3 48.74 0.251 7.42 2.53 10.87
11/9/2020 9:45:00 AM 7.3375 2.4454
11/9/2020 10:00:00 AM 7.3384 2.2418
11/9/2020 10:00:00 AM 9.4 48.92 0.251 7.43 1.28 10.94
11/9/2020 10:15:00 AM 9.53 49.154 0.251 7.4 1.08 10.99
11/9/2020 10:15:00 AM 7.3343 2.3072
11/9/2020 10:30:00 AM 7.3354 2.2051
11/9/2020 10:30:00 AM 9.65 49.37 0.251 7.37 0.99 11.09
11/9/2020 10:45:00 AM 9.72 49.496 0.251 7.4 1.42 11.16
11/9/2020 10:45:00 AM 7.3383 2.0888
11/9/2020 11:00:00 AM 7.3401 2.0292
11/9/2020 11:00:00 AM 9.89 49.802 0.251 7.41 1.18 11.25
11/9/2020 11:15:00 AM 9.98 49.964 0.251 7.4 1.5 11.34
11/9/2020 11:15:00 AM 7.3418 1.9302
11/9/2020 11:30:00 AM 7.3424 1.9399
11/9/2020 11:30:00 AM 10.09 50.162 0.251 7.41 1 11.39
11/9/2020 11:45:00 AM 10.22 50.396 0.251 7.44 0.93 11.46
11/9/2020 11:45:00 AM 7.3463 1.9012
11/9/2020 12:00:00 PM 7.3516 1.8247
11/9/2020 12:00:00 PM 10.31 50.558 0.251 7.47 1.05 11.56
11/9/2020 12:15:00 PM 10.47 50.846 0.251 7.5 1.1 11.67
11/9/2020 12:15:00 PM 7.3583 1.8391
11/9/2020 12:30:00 PM 7.3661 1.8457
11/9/2020 12:30:00 PM 10.59 51.062 0.251 7.55 1.04 11.72
11/9/2020 12:45:00 PM 10.69 51.242 0.251 7.6 0.98 11.77
11/9/2020 12:45:00 PM 7.3727 1.7532
11/9/2020 1:00:00 PM 7.3728 1.7258
11/9/2020 1:00:00 PM 10.72 51.296 0.251 7.61 1.06 11.87
11/9/2020 1:15:00 PM 10.89 51.602 0.251 7.65 1.01 11.95
11/9/2020 1:15:00 PM 7.3698 1.7418
11/9/2020 1:30:00 PM 7.368 1.7566
11/9/2020 1:30:00 PM 10.99 51.782 0.25 7.68 0.88 12
11/9/2020 1:45:00 PM 10.99 51.782 0.25 7.69 1.01 12.1
11/9/2020 1:45:00 PM 7.3733 1.6878
11/9/2020 2:00:00 PM 7.3849 1.6531
11/9/2020 2:00:00 PM 11.05 51.89 0.25 7.73 1 12.13
11/9/2020 2:15:00 PM 11.11 51.998 0.25 7.74 0.91 12.16
11/9/2020 2:15:00 PM 7.3951 1.6276
11/9/2020 2:30:00 PM 7.4049 1.6267
11/9/2020 2:30:00 PM 11.21 52.178 0.25 7.74 0.87 12.2
11/9/2020 2:45:00 PM 11.28 52.304 0.25 7.72 0.79 12.23
11/9/2020 2:45:00 PM 7.4091 1.6326
11/9/2020 3:00:00 PM 7.4183 1.6263
11/9/2020 3:00:00 PM 11.34 52.412 0.25 7.71 1.03 12.21
11/9/2020 3:15:00 PM 11.4 52.52 0.25 7.71 0.78 12.23
11/9/2020 3:15:00 PM 7.4286 1.6314
11/9/2020 3:30:00 PM 7.4445 1.6614
11/9/2020 3:30:00 PM 11.48 52.664 0.25 7.7 0.69 12.23
11/9/2020 3:45:00 PM 11.53 52.754 0.25 7.73 0.88 12.21
11/9/2020 3:45:00 PM 7.454 1.622
11/9/2020 4:00:00 PM 7.4618 1.6234
11/9/2020 4:00:00 PM 11.57 52.826 0.25 7.74 1.09 12.16
11/9/2020 4:15:00 PM 11.61 52.898 0.25 7.72 1.05 12.11
11/9/2020 4:15:00 PM 7.4678 1.6337
11/9/2020 4:30:00 PM 7.4723 1.6416
11/9/2020 4:30:00 PM 11.64 52.952 0.25 7.71 0.77 12.1
11/9/2020 4:45:00 PM 11.67 53.006 0.25 7.72 0.73 12.06
11/9/2020 4:45:00 PM 7.4696 1.6446
11/9/2020 5:00:00 PM 7.4772 1.6361
11/9/2020 5:00:00 PM 11.67 53.006 0.25 7.72 0.73 11.97
11/9/2020 5:15:00 PM 11.66 52.988 0.25 7.71 1.22 11.89
11/9/2020 5:15:00 PM 7.4958 1.6341
11/9/2020 5:30:00 PM 7.5241 1.6288
11/9/2020 5:30:00 PM 11.65 52.97 0.25 7.71 0.87 11.85
11/9/2020 5:45:00 PM 11.62 52.916 0.25 7.71 0.84 11.77
11/9/2020 5:45:00 PM 7.5418 1.6001
11/9/2020 6:00:00 PM 7.5564 1.7866
11/9/2020 6:00:00 PM 11.58 52.844 0.25 7.73 1.43 11.69
11/9/2020 6:15:00 PM 11.53 52.754 0.25 7.72 2.61 11.65
11/9/2020 6:15:00 PM 7.5613 1.8367
11/9/2020 6:30:00 PM 7.5682 1.9209
11/9/2020 6:30:00 PM 11.49 52.682 0.25 7.74 1.74 11.56
11/9/2020 6:45:00 PM 11.43 52.574 0.251 7.73 0.72 11.51
11/9/2020 6:45:00 PM 7.5804 1.9389
11/9/2020 7:00:00 PM 7.6008 1.9136
11/9/2020 7:00:00 PM 11.39 52.502 0.261 7.73 0.98 11.39
11/9/2020 7:15:00 PM 11.32 52.376 0.25 7.74 0.9 11.33
11/9/2020 7:15:00 PM 7.6228 1.9464
11/9/2020 7:30:00 PM 7.6393 1.9599
11/9/2020 7:30:00 PM 11.28 52.304 0.252 7.73 2.84 11.23
11/9/2020 7:45:00 PM 11.21 52.178 0.252 7.74 1.02 11.16
11/9/2020 7:45:00 PM 7.6541 1.9413
11/9/2020 8:00:00 PM 7.6677 1.9715
11/9/2020 8:00:00 PM 11.15 52.07 0.255 7.75 1.04 11.09
11/9/2020 8:15:00 PM 11.08 51.944 0.25 7.73 1 11.03
11/9/2020 8:15:00 PM 7.6787 2.0786
11/9/2020 8:30:00 PM 7.6469 2.247
11/9/2020 8:30:00 PM 11.04 51.872 0.254 7.72 0.88 10.94
11/9/2020 8:45:00 PM 10.99 51.782 0.25 7.72 0.72 10.88
11/9/2020 8:45:00 PM 7.7084 2.2998
11/9/2020 9:00:00 PM 7.7434 2.1374
11/9/2020 9:00:00 PM 10.95 51.71 0.25 7.73 0.78 10.79
11/9/2020 9:15:00 PM 10.89 51.602 0.25 7.73 0.8 10.77
11/9/2020 9:15:00 PM 7.7593 2.1307
11/9/2020 9:30:00 PM 7.7764 2.1386
11/9/2020 9:30:00 PM 10.84 51.512 0.25 7.77 1.9 10.67
11/9/2020 9:45:00 PM 10.81 51.458 0.25 7.8 0.88 10.6
11/9/2020 9:45:00 PM 7.7882 2.1341
11/9/2020 10:00:00 PM 7.7937 2.1378
11/9/2020 10:00:00 PM 10.77 51.386 0.25 7.78 0.8 10.51
11/9/2020 10:15:00 PM 10.71 51.278 0.25 7.79 0.8 10.52
11/9/2020 10:15:00 PM 7.7975 2.1292
11/9/2020 10:30:00 PM 7.7844 2.1495
11/9/2020 10:30:00 PM 10.68 51.224 0.25 7.81 0.81 10.47
11/9/2020 10:45:00 PM 10.63 51.134 0.25 7.8 0.79 10.42
11/9/2020 10:45:00 PM 7.7726 2.2732
11/9/2020 11:00:00 PM 7.7746 2.429
11/9/2020 11:00:00 PM 10.61 51.098 0.25 7.77 0.96 10.38
11/9/2020 11:15:00 PM 10.57 51.026 0.25 7.71 0.99 10.35
11/9/2020 11:15:00 PM 7.7981 2.2121
11/9/2020 11:30:00 PM 7.8167 2.242
11/9/2020 11:30:00 PM 10.55 50.99 0.25 7.71 0.76 10.34
11/9/2020 11:45:00 PM 10.52 50.936 0.25 7.68 3.04 10.34
11/9/2020 11:45:00 PM 7.8176 2.2
11/10/2020 12:00:00 AM 7.7366 2.3493
11/10/2020 12:00:00 AM 10.49 50.882 0.25 7.66 1.02 10.3
11/10/2020 12:15:00 AM 10.47 50.846 0.25 7.69 0.69 10.28
11/10/2020 12:15:00 AM 7.7304 2.2555
11/10/2020 12:30:00 AM 7.7466 2.1622
11/10/2020 12:30:00 AM 10.45 50.81 0.25 7.69 1.15 10.25
11/10/2020 12:45:00 AM 10.44 50.792 0.239 7.69 1.87 10.23
11/10/2020 12:45:00 AM 7.763 2.1318
11/10/2020 1:00:00 AM 7.7719 2.1287
11/10/2020 1:00:00 AM 10.42 50.756 0.25 7.68 1.1 10.23
11/10/2020 1:15:00 AM 10.42 50.756 0.25 7.64 1.01 10.2
11/10/2020 1:15:00 AM 7.7574 2.2087
11/10/2020 1:30:00 AM 7.7221 2.2953
11/10/2020 1:30:00 AM 10.4 50.72 0.25 7.64 0.81 10.17
11/10/2020 1:45:00 AM 10.4 50.72 0.25 7.65 1.18 10.17
11/10/2020 1:45:00 AM 7.6925 2.28
11/10/2020 2:00:00 AM 7.6873 2.3284
11/10/2020 2:00:00 AM 10.37 50.666 0.25 7.63 0.8 10.17
11/10/2020 2:15:00 AM 10.38 50.684 0.25 7.64 1.56 10.15
11/10/2020 2:15:00 AM 7.6764 2.235
11/10/2020 2:30:00 AM 7.6659 2.2695
11/10/2020 2:30:00 AM 10.37 50.666 0.25 7.62 0.82 10.14
11/10/2020 2:45:00 AM 10.36 50.648 0.25 7.62 0.98 10.13
11/10/2020 2:45:00 AM 7.6622 2.4
11/10/2020 3:00:00 AM 7.6284 2.2533
11/10/2020 3:00:00 AM 10.35 50.63 0.25 7.62 0.87 10.14
11/10/2020 3:15:00 AM 10.33 50.594 0.25 7.66 1.03 10.12
11/10/2020 3:15:00 AM 7.6042 2.2085
11/10/2020 3:30:00 AM 7.5837 2.1272
11/10/2020 3:30:00 AM 10.32 50.576 0.25 7.66 6.95 10.09
11/10/2020 3:45:00 AM 10.29 50.522 0.25 7.66 0.72 10.08
11/10/2020 3:45:00 AM 7.5634 2.1273
11/10/2020 4:00:00 AM 7.5378 2.0708
11/10/2020 4:00:00 AM 10.28 50.504 0.25 7.65 1.11 10.06
11/10/2020 4:15:00 AM 10.27 50.486 0.249 7.63 1.22 10.06
11/10/2020 4:15:00 AM 7.5186 2.0657
11/10/2020 4:30:00 AM 7.5093 1.998
11/10/2020 4:30:00 AM 10.25 50.45 0.249 7.63 1.07 10.03
11/10/2020 4:45:00 AM 10.23 50.414 0.24 7.63 1.08 10.04
11/10/2020 4:45:00 AM 7.4961 1.9396
11/10/2020 5:00:00 AM 7.4822 1.9208
11/10/2020 5:00:00 AM 10.21 50.378 0.249 7.62 0.97 10.03
11/10/2020 5:15:00 AM 10.18 50.324 0.249 7.63 1.22 10.01
11/10/2020 5:15:00 AM 7.4722 1.9444
11/10/2020 5:30:00 AM 7.4614 1.9171
11/10/2020 5:30:00 AM 10.16 50.288 0.25 7.62 1.12 9.99
11/10/2020 5:45:00 AM 10.15 50.27 0.249 7.62 1.13 9.98
11/10/2020 5:45:00 AM 7.455 1.8999
11/10/2020 6:00:00 AM 7.3291 1.7411
11/10/2020 6:00:00 AM 10.12 50.216 0.249 7.63 1.18 9.96
11/10/2020 6:15:00 AM 10.1 50.18 0.25 7.62 1.38 9.94
11/10/2020 6:15:00 AM 7.3995 1.7505
11/10/2020 6:30:00 AM 7.4114 1.7559
11/10/2020 6:30:00 AM 10.1 50.18 0.25 7.63 0.87 9.93
11/10/2020 6:45:00 AM 10.08 50.144 0.25 7.62 0.95 9.94
11/10/2020 6:45:00 AM 7.4095 1.6834
11/10/2020 7:00:00 AM 7.4034 1.6693
11/10/2020 7:00:00 AM 10.06 50.108 0.25 7.62 0.95 9.92
11/10/2020 7:15:00 AM 10.05 50.09 0.25 7.63 1.01 9.91
11/10/2020 7:15:00 AM 7.4 1.6509
11/10/2020 7:30:00 AM 7.3961 1.6534
11/10/2020 7:30:00 AM 10.03 50.054 0.249 7.62 0.84 9.93
11/10/2020 7:45:00 AM 10.05 50.09 0.25 7.62 0.75 9.97
11/10/2020 7:45:00 AM 7.3913 1.6356
11/10/2020 8:00:00 AM 7.3857 1.6372
11/10/2020 8:00:00 AM 10.06 50.108 0.25 7.63 0.73 10.04
11/10/2020 8:15:00 AM 10.08 50.144 0.249 7.64 1.09 10.08
11/10/2020 8:15:00 AM 7.3823 1.6387
11/10/2020 8:30:00 AM 7.381 1.647
11/10/2020 8:30:00 AM 10.1 50.18 0.249 7.65 0.91 10.22
11/10/2020 8:45:00 AM 10.13 50.234 0.249 7.65 0.77 10.31
11/10/2020 8:45:00 AM 7.3794 1.6001
11/10/2020 9:00:00 AM 7.3732 1.6586
11/10/2020 9:00:00 AM 10.17 50.306 0.249 7.66 0.7 10.39
11/10/2020 9:15:00 AM 10.22 50.396 0.249 7.68 0.53 10.52
11/10/2020 9:15:00 AM 7.3662 1.6482
11/10/2020 9:30:00 AM 7.3673 1.6562
11/10/2020 9:30:00 AM 10.28 50.504 0.249 7.69 0.77 10.62
11/10/2020 9:45:00 AM 10.4 50.72 0.249 7.68 0.38 10.71
11/10/2020 9:45:00 AM 7.3619 2.4709
11/10/2020 10:00:00 AM 7.3523 1.8998
11/10/2020 10:00:00 AM 10.57 51.026 0.249 7.63 0.43 10.84
11/10/2020 10:15:00 AM 10.73 51.314 0.249 7.5 0.48 10.96
11/10/2020 10:15:00 AM 7.3465 1.7222
11/10/2020 10:30:00 AM 7.3449 1.6265
11/10/2020 10:30:00 AM 10.83 51.494 0.249 7.4 0.48 11.06
11/10/2020 10:45:00 AM 10.94 51.692 0.249 7.38 0.64 11.17
11/10/2020 10:45:00 AM 7.3449 1.7009
11/10/2020 11:00:00 AM 7.3451 1.745
11/10/2020 11:00:00 AM 11.05 51.89 0.249 7.39 0.46 11.28
11/10/2020 11:15:00 AM 11.13 52.034 0.249 7.4 0.64 11.35
11/10/2020 11:15:00 AM 7.3523 1.7026
11/10/2020 11:30:00 AM 7.3553 1.6331
11/10/2020 11:30:00 AM 11.22 52.196 0.249 7.4 0.48 11.47
11/10/2020 11:45:00 AM 11.38 52.484 0.249 7.41 0.53 11.54
11/10/2020 11:45:00 AM 7.3514 1.6001
11/10/2020 12:00:00 PM 7.3559 1.6501
11/10/2020 12:00:00 PM 11.43 52.574 0.249 7.42 0.47 11.62
11/10/2020 12:15:00 PM 11.57 52.826 0.249 7.43 0.67 11.62
11/10/2020 12:15:00 PM 7.3568 1.576
11/10/2020 12:30:00 PM 7.3578 1.5845
11/10/2020 12:30:00 PM 11.74 53.132 0.249 7.47 0.66 11.76
11/10/2020 12:45:00 PM 11.85 53.33 0.249 7.54 0.38 11.85
11/10/2020 12:45:00 PM 7.3639 1.5783
11/10/2020 1:00:00 PM 7.3681 1.5825
11/10/2020 1:00:00 PM 11.98 53.564 0.248 7.58 0.4 11.98
11/10/2020 1:15:00 PM 12.09 53.762 0.248 7.62 0.51 12.02
11/10/2020 1:15:00 PM 7.3764 1.6233
11/10/2020 1:30:00 PM 7.3903 1.6493
11/10/2020 1:30:00 PM 12.18 53.924 0.248 7.68 0.42 12.12
11/10/2020 1:45:00 PM 12.1 53.78 0.248 7.74 0.42 12.15
11/10/2020 1:45:00 PM 7.3917 2.653
11/10/2020 2:00:00 PM 7.4016 1.7841
11/10/2020 2:00:00 PM 12.16 53.888 0.248 7.74 0.38 12.2
11/10/2020 2:15:00 PM 12.3 54.14 0.248 7.75 0.55 12.26
11/10/2020 2:15:00 PM 7.4112 1.7638
11/10/2020 2:30:00 PM 7.4205 1.7701
11/10/2020 2:30:00 PM 12.34 54.212 0.248 7.77 0.6 12.33
11/10/2020 2:45:00 PM 12.41 54.338 0.248 7.8 0.37 12.37
11/10/2020 2:45:00 PM 7.4281 1.7442
11/10/2020 3:00:00 PM 7.4358 1.7098
11/10/2020 3:00:00 PM 12.49 54.482 0.248 7.81 0.64 12.37
11/10/2020 3:15:00 PM 12.55 54.59 0.248 7.82 0.58 12.38
11/10/2020 3:15:00 PM 7.4443 1.6297
11/10/2020 3:30:00 PM 7.4599 1.6495
11/10/2020 3:30:00 PM 12.61 54.698 0.247 7.83 0.43 12.36
11/10/2020 3:45:00 PM 12.68 54.824 0.247 7.85 0.3 12.4
11/10/2020 3:45:00 PM 7.464 1.6506
11/10/2020 4:00:00 PM 7.4765 1.6267
11/10/2020 4:00:00 PM 12.73 54.914 0.247 7.85 0.59 12.33
11/10/2020 4:15:00 PM 12.75 54.95 0.247 7.86 0.49 12.27
11/10/2020 4:15:00 PM 7.4905 1.6506
11/10/2020 4:30:00 PM 7.4924 1.6595
11/10/2020 4:30:00 PM 12.78 55.004 0.247 7.86 0.36 12.2
11/10/2020 4:45:00 PM 12.78 55.004 0.247 7.85 0.32 12.1
11/10/2020 4:45:00 PM 7.4826 1.6391
11/10/2020 5:00:00 PM 7.469 1.6561
11/10/2020 5:00:00 PM 12.79 55.022 0.247 7.86 0.36 12
11/10/2020 5:15:00 PM 12.8 55.04 0.247 7.86 0.34 11.94
11/10/2020 5:15:00 PM 7.4803 1.6507
11/10/2020 5:30:00 PM 7.5069 1.5681
11/10/2020 5:30:00 PM 12.81 55.058 0.247 7.85 0.38 11.84
11/10/2020 5:45:00 PM 12.81 55.058 0.247 7.86 0.57 11.76
11/10/2020 5:45:00 PM 7.5236 1.5999
11/10/2020 6:00:00 PM 7.5405 1.6703
11/10/2020 6:00:00 PM 12.81 55.058 0.247 7.86 0.35 11.67
11/10/2020 6:15:00 PM 12.78 55.004 0.247 7.86 0.6 11.58
11/10/2020 6:15:00 PM 7.5448 1.7262
11/10/2020 6:30:00 PM 7.5469 1.7242
11/10/2020 6:30:00 PM 12.77 54.986 0.247 7.86 0.28 11.5
11/10/2020 6:45:00 PM 12.74 54.932 0.247 7.85 0.42 11.4
11/10/2020 6:45:00 PM 7.5554 1.7222
11/10/2020 7:00:00 PM 7.5659 1.8103
11/10/2020 7:00:00 PM 12.7 54.86 0.247 7.84 0.41 11.34
11/10/2020 7:15:00 PM 12.66 54.788 0.247 7.84 0.41 11.23
11/10/2020 7:15:00 PM 7.5797 2.0127
11/10/2020 7:30:00 PM 7.6306 1.9591
11/10/2020 7:30:00 PM 12.63 54.734 0.247 7.84 0.36 11.16
11/10/2020 7:45:00 PM 12.59 54.662 0.247 7.84 0.47 11.08
11/10/2020 7:45:00 PM 7.6499 1.9516
11/10/2020 8:00:00 PM 7.6866 1.961
11/10/2020 8:00:00 PM 12.53 54.554 0.247 7.84 0.62 10.99
11/10/2020 8:15:00 PM 12.5 54.5 0.247 7.84 0.55 10.91
11/10/2020 8:15:00 PM 7.7298 1.9837
11/10/2020 8:30:00 PM 7.7446 2.0281
11/10/2020 8:30:00 PM 12.49 54.482 0.247 7.84 2.17 10.8
11/10/2020 8:45:00 PM 12.44 54.392 0.247 7.82 0.65 10.73
11/10/2020 8:45:00 PM 7.7532 2
11/10/2020 9:00:00 PM 7.8037 2.0799
11/10/2020 9:00:00 PM 12.39 54.302 0.247 7.81 0.69 10.63
11/10/2020 9:15:00 PM 12.34 54.212 0.247 7.8 0.66 10.57
11/10/2020 9:15:00 PM 7.8561 2.5898
11/10/2020 9:30:00 PM 7.8649 3.2965
11/10/2020 9:30:00 PM 12.29 54.122 0.247 7.78 0.39 10.5
11/10/2020 9:45:00 PM 12.26 54.068 0.247 7.79 0.6 10.41
11/10/2020 9:45:00 PM 7.8749 2.1344
11/10/2020 10:00:00 PM 7.8928 2.0481
11/10/2020 10:00:00 PM 12.23 54.014 0.247 7.77 0.47 10.35
11/10/2020 10:15:00 PM 12.19 53.942 0.247 7.77 0.47 10.28
11/10/2020 10:15:00 PM 7.8944 1.9871
11/10/2020 10:30:00 PM 7.9263 1.9413
11/10/2020 10:30:00 PM 12.16 53.888 0.247 7.77 1.06 10.21
11/10/2020 10:45:00 PM 12.13 53.834 0.247 7.76 0.56 10.14
11/10/2020 10:45:00 PM 7.9638 1.9544
11/10/2020 11:00:00 PM 7.9442 2.0284
11/10/2020 11:00:00 PM 12.09 53.762 0.247 7.75 0.4 10.09
11/10/2020 11:15:00 PM 12.06 53.708 0.247 7.74 0.47 10.03
11/10/2020 11:15:00 PM 7.9284 2.0781
11/10/2020 11:30:00 PM 7.9178 2.1379
11/10/2020 11:30:00 PM 12.03 53.654 0.247 7.74 0.53 9.99
11/10/2020 11:45:00 PM 12 53.6 0.247 7.73 0.63 9.96
11/10/2020 11:45:00 PM 7.9128 2.1
11/11/2020 12:00:00 AM 7.9336 2.1283
11/11/2020 12:00:00 AM 11.97 53.546 0.247 7.73 0.61 9.93
11/11/2020 12:15:00 AM 11.95 53.51 0.247 7.73 0.62 9.91
11/11/2020 12:15:00 AM 7.9277 2.1331
11/11/2020 12:30:00 AM 7.923 2.1557
11/11/2020 12:30:00 AM 11.92 53.456 0.247 7.71 0.59 9.87
11/11/2020 12:45:00 AM 11.89 53.402 0.247 7.71 0.62 9.83
11/11/2020 12:45:00 AM 7.903 3.495
11/11/2020 1:00:00 AM 7.9078 2.4258
11/11/2020 1:00:00 AM 11.87 53.366 0.247 7.71 1.12 9.81
11/11/2020 1:15:00 AM 11.85 53.33 0.247 7.7 0.81 9.78
11/11/2020 1:15:00 AM 7.8974 2.2624
11/11/2020 1:30:00 AM 7.8649 3.1399
11/11/2020 1:30:00 AM 11.82 53.276 0.246 7.71 0.81 9.76
11/11/2020 1:45:00 AM 11.8 53.24 0.246 7.7 0.82 9.73
11/11/2020 1:45:00 AM 7.8394 2.6228
11/11/2020 2:00:00 AM 7.8155 2.4052
11/11/2020 2:00:00 AM 11.78 53.204 0.247 7.69 0.85 9.71
11/11/2020 2:15:00 AM 11.77 53.186 0.247 7.68 0.71 9.7
11/11/2020 2:15:00 AM 7.7873 2.3369
11/11/2020 2:30:00 AM 7.7661 2.9505
11/11/2020 2:30:00 AM 11.74 53.132 0.247 7.68 1.15 9.66
11/11/2020 2:45:00 AM 11.73 53.114 0.247 7.68 1.29 9.65
11/11/2020 2:45:00 AM 7.756 2.4
11/11/2020 3:00:00 AM 7.7369 2.2715
11/11/2020 3:00:00 AM 11.72 53.096 0.247 7.68 0.86 9.6
11/11/2020 3:15:00 AM 11.71 53.078 0.247 7.67 0.5 9.6
11/11/2020 3:15:00 AM 7.7229 2.6081
11/11/2020 3:30:00 AM 7.7132 2.2871
11/11/2020 3:30:00 AM 11.69 53.042 0.247 7.67 1.54 9.59
11/11/2020 3:45:00 AM 11.68 53.024 0.247 7.67 0.76 9.6
11/11/2020 3:45:00 AM 7.6968 2.246
11/11/2020 4:00:00 AM 7.6755 2.1568
11/11/2020 4:00:00 AM 11.67 53.006 0.247 7.67 0.59 9.59
11/11/2020 4:15:00 AM 11.66 52.988 0.247 7.66 0.48 9.55
11/11/2020 4:15:00 AM 7.6664 2.1249
11/11/2020 4:30:00 AM 7.6547 2.0855
11/11/2020 4:30:00 AM 11.67 53.006 0.247 7.66 0.97 9.53
11/11/2020 4:45:00 AM 11.68 53.024 0.247 7.65 0.42 9.5
11/11/2020 4:45:00 AM 7.6388 1.951
11/11/2020 5:00:00 AM 7.625 1.869
11/11/2020 5:00:00 AM 11.68 53.024 0.247 7.64 0.53 9.51
11/11/2020 5:15:00 AM 11.69 53.042 0.247 7.64 0.72 9.49
11/11/2020 5:15:00 AM 7.6115 1.8466
11/11/2020 5:30:00 AM 7.595 1.8759
11/11/2020 5:30:00 AM 11.69 53.042 0.247 7.64 0.9 9.48
11/11/2020 5:45:00 AM 11.7 53.06 0.247 7.65 0.47 9.47
11/11/2020 5:45:00 AM 7.5894 1.8998
11/11/2020 6:00:00 AM 7.5643 2.0423
11/11/2020 6:00:00 AM 11.7 53.06 0.247 7.66 0.7 9.46
11/11/2020 6:15:00 AM 11.7 53.06 0.247 7.67 0.54 9.42
11/11/2020 6:15:00 AM 7.5545 1.9616
11/11/2020 6:30:00 AM 7.5414 2.7529
11/11/2020 6:30:00 AM 11.71 53.078 0.247 7.66 0.68 9.38
11/11/2020 6:45:00 AM 11.71 53.078 0.247 7.64 0.64 9.39
11/11/2020 6:45:00 AM 7.5178 3.4246
11/11/2020 7:00:00 AM 7.4928 2.3245
11/11/2020 7:00:00 AM 11.72 53.096 0.247 7.64 0.48 9.36
11/11/2020 7:15:00 AM 11.74 53.132 0.247 7.63 0.53 9.35
11/11/2020 7:15:00 AM 7.4714 1.7788
11/11/2020 7:30:00 AM 7.457 1.7253
11/11/2020 7:30:00 AM 11.76 53.168 0.247 7.62 0.38 9.36
11/11/2020 7:45:00 AM 11.77 53.186 0.248 7.61 1 9.4
11/11/2020 7:45:00 AM 7.4504 1.6891
11/11/2020 8:00:00 AM 7.437 1.6472
11/11/2020 8:00:00 AM 11.79 53.222 0.248 7.61 1.5 9.37
11/11/2020 8:15:00 AM 11.81 53.258 0.248 7.61 0.61 9.38
11/11/2020 8:15:00 AM 7.4192 1.6353
11/11/2020 8:30:00 AM 7.4044 1.6417
11/11/2020 8:30:00 AM 11.82 53.276 0.248 7.61 1.47 9.38
11/11/2020 8:45:00 AM 11.84 53.312 0.248 7.61 0.65 9.36
11/11/2020 8:45:00 AM 7.3962 1.7
11/11/2020 9:00:00 AM 7.3773 1.6303
11/11/2020 9:00:00 AM 11.86 53.348 0.248 7.6 0.34 9.37
11/11/2020 9:15:00 AM 11.87 53.366 0.248 7.61 0.34 9.39
11/11/2020 9:15:00 AM 7.3692 1.656
11/11/2020 9:30:00 AM 7.3622 1.6532
11/11/2020 9:30:00 AM 11.9 53.42 0.248 7.6 0.61 9.39
11/11/2020 9:45:00 AM 11.93 53.474 0.248 7.59 0.27 9.42
11/11/2020 9:45:00 AM 7.3621 1.652
11/11/2020 10:00:00 AM 7.3603 2.1172
11/11/2020 10:00:00 AM 11.95 53.51 0.248 7.59 0.3 9.48
11/11/2020 10:15:00 AM 11.97 53.546 0.248 7.59 0.58 9.49
11/11/2020 10:15:00 AM 7.3495 1.9837
11/11/2020 10:30:00 AM 7.3477 1.6434
11/11/2020 10:30:00 AM 12 53.6 0.248 7.58 0.3 9.5
11/11/2020 10:45:00 AM 12.03 53.654 0.248 7.58 0.41 9.58
11/11/2020 10:45:00 AM 7.3461 1.6474
11/11/2020 11:00:00 AM 7.3434 1.6545
11/11/2020 11:00:00 AM 12.07 53.726 0.247 7.57 0.38 9.66
11/11/2020 11:15:00 AM 12.1 53.78 0.247 7.41 0.24 9.72
11/11/2020 11:15:00 AM 7.3384 1.6533
11/11/2020 11:30:00 AM 7.3342 1.6515
11/11/2020 11:30:00 AM 12.13 53.834 0.247 7.53 0.41 9.76
11/11/2020 11:45:00 AM 12.16 53.888 0.247 7.54 0.32 9.81